GFSFLT1_850_temp_000.txt.gz
Temp
14 13 13 13 13 13 14 14 14 14 13 13 13 13 14 14 14 14 14 13 13 12 11 12 13 14 14 13 13 13 13 13 13
14 13 13 13 13 14 14 14 14 14 14 14 14 14 14 14 15 14 14 14 13 13 11 11 11 12 13 14 13 13 13 13 12
14 14 14 14 14 14 14 14 14 14 14 15 15 15 15 15 15 15 14 14 14 13 13 11 11 11 10 11 11 10 11 11 10
14 14 14 14 14 14 14 14 14 15 14 14 14 14 14 14 14 14 14 14 14 14 13 12 11 11 11 11 11 10 10 11 10
14 15 15 14 14 14 14 14 14 14 14 13 13 13 13 13 13 13 13 13 13 13 13 13 12 11 11 11 12 12 11 10 11
15 15 15 15 14 14 14 14 14 13 13 13 13 12 12 12 12 12 13 12 12 12 12 12 12 12 12 12 12 11 11 11 10
15 15 14 14 14 14 13 13 13 12 12 12 13 12 12 12 11 11 12 12 12 12 12 12 12 12 12 13 12 12 11 12 12
14 14 13 13 13 13 13 13 12 12 12 12 12 13 13 12 12 12 12 12 12 12 12 13 13 13 13 12 12 12 12 12 11
13 13 13 12 13 13 12 13 13 13 12 12 12 12 12 12 12 11 12 12 12 11 11 12 12 12 13 12 13 13 13 12 12
13 12 12 12 12 12 12 12 12 12 13 13 13 13 12 12 12 11 11 12 12 11 11 12 12 12 12 12 12 12 12 12 12
12 12 12 12 12 12 12 12 12 12 12 13 12 12 12 11 11 11 11 11 11 11 11 12 12 12 11 11 11 11 11 11 11
12 11 11 12 12 12 12 12 12 12 12 12 11 11 11 11 11 10 10 10 11 11 11 11 12 12 12 11 11 11 10 10 10
11 11 12 12 12 12 12 12 11 11 10 10 10 10 10 9 9 10 9 10 10 11 11 11 11 11 11 11 11 11 11 10 10
12 12 12 12 11 11 11 10 9 9 9 9 9 10 9 9 9 9 10 10 10 10 10 10 10 10 10 10 11 11 10 9 8
12 12 11 11 10 10 9 9 8 8 8 8 9 9 9 9 9 10 9 10 10 9 10 10 10 10 10 10 10 10 8 7 7
11 11 10 10 9 9 8 8 8 7 7 7 9 9 9 9 9 9 9 9 9 9 9 9 8 9 8 8 7 7 6 5 5
11 10 9 9 8 8 7 7 7 7 6 6 6 6 7 8 7 7 7 7 6 7 7 7 7 6 6 6 6 6 5 4 4
10 9 9 8 8 7 7 6 6 6 6 5 4 3 3 3 5 5 5 5 4 4 5 5 4 4 4 4 4 4 3 3 3
9 9 8 8 7 6 6 6 6 6 6 5 4 3 2 1 1 2 3 2 3 3 3 3 2 2 2 2 2 2 2 1 1
9 8 8 7 6 6 5 5 5 5 4 4 3 3 2 1 -0 -1 -0 1 2 2 1 1 1 1 0 0 1 1 1 -0 -0

GFSFLT1_850_temp_003.txt.gz
Temp
13 13 13 12 13 13 14 14 14 14 14 14 14 14 14 14 14 13 13 13 13 12 11 11 11 11 12 11 11 12 12 12 12
14 13 13 13 13 14 14 14 14 14 14 14 15 14 14 14 14 13 13 13 13 13 13 11 11 11 11 11 10 11 11 11 11
14 13 13 13 14 14 14 14 14 14 14 14 14 14 14 14 14 13 13 13 13 13 13 13 11 12 11 10 10 10 11 11 11
14 14 14 14 14 14 14 14 14 14 13 13 13 13 13 13 13 13 13 13 13 12 12 12 12 11 12 11 11 11 11 10 10
14 14 14 14 14 14 13 13 13 13 13 13 13 12 12 12 12 12 12 12 12 12 12 12 12 12 12 12 11 11 11 11 10
15 15 14 14 13 13 13 13 13 13 12 12 12 12 12 12 12 12 12 12 12 12 12 13 12 12 12 12 12 12 12 11 11
14 14 14 13 13 13 12 12 12 12 12 12 12 12 12 12 12 12 12 12 12 12 12 12 13 12 12 12 12 12 12 12 12
14 14 13 13 13 12 12 12 12 12 12 12 12 13 12 13 13 12 12 12 12 12 12 12 12 12 12 12 12 13 12 12 12
13 13 12 12 12 12 12 12 12 12 12 12 13 13 13 13 13 12 12 11 11 12 12 12 11 12 12 12 13 12 12 12 12
13 13 12 12 12 12 12 12 12 12 12 12 12 12 12 12 11 11 11 11 11 11 11 11 11 12 12 12 11 11 11 11 11
12 12 12 12 12 12 12 12 12 12 12 12 12 12 11 11 10 10 10 10 10 10 11 11 11 11 11 11 11 11 11 11 11
11 11 12 11 12 12 12 12 11 11 11 11 11 10 10 10 10 9 9 10 10 10 10 11 11 11 11 11 11 11 11 11 10
11 11 12 12 12 12 12 11 11 10 10 10 10 10 9 9 9 9 9 9 10 10 10 10 10 10 10 10 10 10 11 10 9
11 12 12 11 11 11 10 9 9 9 9 9 10 10 9 9 9 9 9 9 10 10 9 10 10 10 10 10 10 9 9 7 7
12 12 11 11 10 9 9 8 8 7 8 8 9 9 9 8 8 8 9 9 9 9 9 9 9 9 9 9 9 9 9 8 6
11 11 10 10 9 9 8 7 7 7 7 8 8 9 8 9 8 8 9 9 8 8 8 8 8 8 8 8 8 7 7 4 5
11 10 10 9 9 8 7 6 6 6 5 5 6 6 7 8 8 8 7 7 7 7 7 7 7 7 7 7 6 6 5 3 2
10 10 9 8 8 7 6 6 5 5 5 4 3 3 3 3 5 5 5 5 5 5 6 5 5 5 4 4 4 4 3 2 1
10 9 8 8 7 6 6 5 5 4 4 4 4 3 2 1 1 3 4 3 3 4 4 4 4 3 3 2 1 2 2 0 0
9 8 8 7 7 6 5 5 4 4 3 3 2 2 2 1 -1 -2 1 3 3 2 2 1 2 2 1 -0 -0 -0 -0 -1 -1

GFSFLT1_850_temp_006.txt.gz
Temp
13 13 13 12 13 14 14 14 14 14 14 14 14 14 14 14 14 13 13 13 13 13 12 12 11 11 11 12 12 12 12 12 12
13 13 13 13 13 13 13 14 14 14 14 14 14 14 14 14 14 13 13 13 13 13 13 13 11 11 11 11 11 10 10 11 11
14 13 13 13 13 13 13 13 14 14 14 13 13 13 13 13 13 13 13 13 13 13 13 13 13 12 11 11 11 11 11 11 11
13 14 13 13 14 13 13 13 13 13 13 12 12 12 12 12 12 12 12 12 12 12 12 13 13 12 11 11 11 11 11 11 11
14 13 14 14 14 13 13 13 13 13 13 12 12 12 12 12 12 12 12 12 12 12 13 13 13 13 13 13 12 12 12 12 12
14 14 14 14 13 13 13 13 13 13 13 12 12 12 12 12 12 12 12 12 12 12 12 12 12 13 13 13 13 12 12 12 12
14 14 14 13 13 12 12 12 12 12 12 12 12 12 12 12 12 12 12 12 12 12 12 12 12 12 12 12 13 12 12 13 13
13 13 13 12 12 12 12 12 12 12 12 12 12 12 12 12 12 12 12 12 12 12 12 12 12 12 12 12 13 13 12 12 12
12 13 12 12 11 12 12 12 12 11 11 12 12 12 12 12 12 12 11 11 11 11 11 10 10 11 11 11 12 12 12 12 12
12 12 11 11 11 11 11 11 12 12 12 12 12 12 12 12 11 11 10 10 10 10 10 10 10 11 10 10 10 11 11 11 11
12 11 11 11 11 11 12 12 12 12 12 12 11 11 10 10 10 9 9 9 10 10 10 10 10 10 10 11 10 10 11 11 11
10 11 11 11 11 12 12 12 12 12 11 11 10 10 9 9 9 9 9 9 9 9 10 10 10 10 10 10 10 10 11 11 10
11 11 11 12 12 12 11 11 11 11 10 10 10 10 10 9 8 8 9 9 9 9 9 9 9 9 10 10 10 10 10 10 10
10 11 12 11 11 11 11 10 10 9 9 10 10 10 10 9 8 8 9 9 9 9 9 8 9 9 9 9 9 9 9 9 8
11 11 11 11 10 10 10 9 8 8 8 9 10 10 9 8 8 8 8 8 8 9 8 8 8 8 8 8 8 8 8 8 5
11 11 10 10 10 10 9 8 8 8 8 8 9 9 9 9 8 7 7 8 8 8 8 8 7 7 7 7 7 7 7 6 3
11 10 10 10 9 9 8 8 7 6 6 5 6 6 7 8 7 8 8 7 7 6 6 6 6 6 6 6 6 6 6 5 3
10 10 9 9 9 8 7 6 6 5 5 4 3 3 3 2 5 6 6 5 5 5 5 5 5 5 5 5 5 4 4 3 1
10 9 9 9 8 7 7 6 5 4 4 4 3 2 1 1 1 2 4 3 3 4 4 4 4 4 4 3 3 2 1 -0 -0
9 9 8 8 7 7 6 5 4 4 3 3 2 2 2 1 -1 -1 1 3 3 3 2 2 2 2 2 1 -1 -1 -2 -2 -1

GFSFLT1_850_temp_009.txt.gz
Temp
13 13 12 12 13 13 13 13 13 13 13 14 14 12 12 14 13 13 13 13 13 13 14 13 12 11 11 11 12 12 12 12 12
13 13 13 13 13 13 13 13 14 14 14 14 13 13 13 13 13 13 13 13 13 13 13 13 13 11 11 11 11 11 11 11 11
14 13 13 13 13 13 14 13 13 13 13 13 13 13 13 13 13 13 13 13 13 13 13 12 13 13 13 12 11 11 11 11 11
13 14 13 13 13 13 13 13 13 13 13 13 13 13 13 13 13 13 13 13 13 13 13 13 13 13 13 13 12 12 12 12 11
13 13 13 13 13 13 13 13 13 13 12 12 12 12 12 12 12 12 12 13 12 13 13 13 13 13 13 13 13 13 13 13 13
13 13 14 14 13 13 13 13 13 12 12 12 12 12 12 12 12 12 12 12 12 12 12 13 13 12 13 13 13 13 12 13 13
14 14 13 13 13 13 12 12 12 12 12 12 12 12 12 12 12 12 13 13 12 12 12 12 12 12 12 12 13 13 13 12 12
13 13 13 12 12 12 11 12 12 12 12 12 12 12 12 13 12 12 12 12 12 11 11 10 11 11 11 11 12 12 12 12 12
13 12 12 12 11 11 12 11 11 12 12 12 12 12 12 12 12 12 11 11 11 9 9 10 10 10 10 10 11 11 11 12 12
12 11 11 11 11 11 11 11 12 12 12 12 12 12 11 11 11 10 10 10 10 10 10 10 10 9 10 10 9 10 11 11 11
11 11 11 11 11 11 11 12 12 12 11 11 11 11 11 10 10 9 9 9 9 9 10 10 10 10 10 10 10 10 10 10 10
11 11 11 11 11 12 12 12 11 11 10 10 10 10 10 9 9 8 8 9 9 9 9 9 9 10 10 10 10 10 10 10 10
11 11 11 11 12 12 11 11 11 11 10 10 10 10 10 9 8 8 8 8 8 8 9 9 9 9 9 9 9 9 9 10 10
11 10 11 11 11 11 11 11 10 10 10 10 10 10 10 9 8 8 8 8 8 8 8 8 8 8 8 8 8 8 8 9 9
10 11 11 11 11 11 10 10 9 9 9 10 10 10 9 8 7 7 7 7 7 7 7 7 8 7 7 7 7 7 8 8 8
11 11 11 10 10 10 9 9 9 9 9 9 10 9 9 8 7 7 7 8 7 7 7 7 7 7 7 7 7 7 7 7 7
11 11 10 10 10 9 9 9 8 8 7 7 7 7 7 7 8 7 7 7 7 7 6 6 6 6 6 6 6 6 6 6 5
11 10 10 9 9 9 8 8 7 7 6 6 5 4 3 4 7 6 6 6 6 5 5 5 5 5 5 5 5 5 5 4 2
10 10 9 9 8 8 7 7 7 6 6 5 4 3 2 1 1 2 3 3 4 5 5 4 4 4 3 3 3 3 2 0 -1
10 9 9 8 8 7 7 6 6 5 5 4 3 3 3 2 -0 -1 2 2 3 3 2 3 3 2 2 1 1 -0 -1 -2 -2

GFSFLT1_850_temp_012.txt.gz
Temp
13 13 13 13 13 13 13 13 13 13 13 13 13 12 11 13 12 12 12 14 13 14 14 13 12 12 11 11 12 12 13 12 12
13 13 13 13 13 13 14 14 13 13 14 13 14 14 13 14 12 12 12 12 13 14 14 13 14 14 13 11 11 11 11 12 12
14 13 13 13 13 14 14 14 13 13 13 13 13 13 13 12 12 12 12 13 13 14 13 12 12 13 13 13 13 12 12 12 12
13 13 13 13 13 14 14 13 13 13 13 13 13 13 13 12 12 13 12 12 13 13 12 13 13 13 13 13 13 13 13 13 12
13 13 13 13 14 13 13 13 13 13 13 13 13 13 13 12 13 12 12 13 13 13 13 13 13 13 13 13 13 13 13 13 13
14 14 14 14 13 13 13 13 12 12 12 12 12 12 12 13 12 13 13 13 13 13 12 12 12 13 13 13 13 13 13 13 13
14 14 14 13 13 13 12 12 12 12 12 12 12 12 13 13 12 12 13 13 13 12 12 12 12 12 12 12 13 13 13 13 13
14 13 12 12 12 12 12 12 12 12 12 12 12 13 12 12 12 12 12 12 11 10 10 11 11 11 11 11 12 12 12 12 12
13 12 12 12 12 11 12 12 12 12 12 12 12 12 12 12 11 10 11 10 10 10 10 10 10 10 10 10 10 11 11 11 11
11 12 12 11 11 11 11 11 12 12 12 12 12 12 11 11 10 8 9 9 9 9 10 9 10 10 10 10 10 10 11 10 10
12 11 11 11 11 11 11 12 12 12 12 11 11 11 10 10 9 8 9 9 9 9 9 9 10 10 10 10 10 10 10 10 10
12 11 11 11 11 12 12 12 11 11 11 11 10 10 10 9 9 8 8 8 8 9 9 9 9 9 9 9 9 10 9 10 10
11 11 11 11 12 12 12 11 11 11 10 10 10 10 9 8 8 8 8 8 8 8 8 9 9 9 9 9 9 9 9 9 9
11 11 11 11 11 11 11 11 11 11 10 10 10 10 8 7 7 7 7 8 8 8 8 8 8 8 8 8 8 8 8 9 9
11 11 11 11 11 11 11 10 10 10 10 10 9 9 8 7 6 6 7 7 7 7 7 7 7 7 8 7 7 7 7 7 7
11 11 11 11 11 10 10 10 9 9 9 9 7 7 8 7 5 6 6 7 7 7 6 6 6 6 7 7 7 7 6 6 6
11 11 11 11 10 10 9 9 9 8 8 7 6 7 7 6 6 7 7 6 6 6 6 6 6 6 6 6 6 6 6 6 5
11 11 10 10 10 9 9 9 8 7 7 6 5 6 7 5 5 5 6 5 5 5 6 5 5 5 4 4 4 4 4 4 4
11 10 10 10 9 9 8 8 7 6 6 4 5 5 4 3 4 4 3 2 2 2 2 4 4 3 3 3 3 3 3 2 2
10 10 10 9 9 8 8 7 6 6 5 5 4 4 2 1 1 2 3 2 1 0 -1 -1 -0 -1 -1 -2 -2 -1 -0 -3 -3

GFSFLT1_850_temp_015.txt.gz
Temp
13 13 13 13 13 14 14 14 14 14 14 14 14 14 14 14 13 12 12 12 13 14 14 14 14 14 13 13 12 14 13 13 13
13 13 13 13 13 14 14 14 14 14 14 14 14 14 14 13 13 13 12 12 13 14 14 13 12 13 14 14 13 13 13 13 14
14 13 13 13 13 14 13 14 13 13 13 13 13 13 14 13 12 13 12 12 13 13 13 13 13 13 13 13 13 13 12 12 13
14 13 13 13 14 14 13 13 13 13 13 13 13 14 14 13 12 13 12 13 13 13 13 13 13 13 13 13 13 13 13 13 13
13 13 14 14 14 14 13 13 13 13 13 13 13 13 13 12 12 12 12 13 13 13 13 13 13 13 13 13 14 13 13 13 13
14 14 14 14 14 14 13 13 13 13 13 13 13 13 12 12 12 12 13 13 13 13 13 12 12 12 13 13 13 13 13 13 13
12 15 14 14 14 13 13 13 12 12 12 12 12 12 13 13 11 11 12 13 12 12 11 12 11 11 11 12 12 12 12 13 13
14 14 14 13 12 12 12 12 12 12 12 13 13 12 13 12 11 10 11 12 9 9 10 10 10 10 10 10 11 11 11 11 11
12 12 12 12 12 12 12 12 12 12 13 13 13 12 11 10 10 9 11 10 10 10 10 10 10 10 10 10 10 10 11 11 11
13 12 11 11 12 12 12 12 12 12 13 12 12 11 11 10 9 9 10 9 9 10 9 10 10 10 10 10 10 10 10 10 11
12 12 12 12 12 12 11 12 12 12 12 11 10 10 9 10 9 8 9 9 9 9 9 9 9 9 9 9 9 10 10 10 10
12 12 12 11 11 11 12 12 12 12 12 10 10 10 9 8 8 8 7 8 9 9 9 9 9 9 9 9 9 9 10 10 10
12 12 12 11 11 12 12 12 11 11 11 11 9 9 9 8 7 7 7 7 7 8 9 8 9 9 9 9 9 9 9 9 9
12 12 11 11 12 12 12 12 11 11 11 11 10 10 9 7 7 6 7 7 8 8 8 8 8 8 8 8 8 8 8 8 8
12 12 11 11 12 12 11 11 11 10 11 11 9 9 8 7 6 6 6 6 7 7 7 7 7 7 8 8 8 7 7 7 7
12 11 11 11 11 11 11 11 10 10 10 9 9 8 9 7 6 6 6 5 5 5 5 6 6 6 6 7 7 6 6 7 6
11 11 11 11 11 11 10 10 9 9 9 9 7 8 8 7 6 6 6 5 5 4 5 6 6 5 6 6 5 6 6 6 5
11 11 11 11 10 10 10 9 9 8 8 8 7 7 8 7 7 6 5 5 4 4 4 4 4 4 4 4 3 3 4 4 4
10 11 11 10 10 10 9 9 8 8 7 6 6 6 5 4 4 5 5 4 4 3 3 3 4 3 2 2 2 2 3 3 2
10 10 10 10 9 9 9 8 8 7 7 6 5 4 3 2 2 2 3 3 3 2 1 1 0 0 -0 -1 -1 -2 -3 -3 -3

GFSFLT1_850_temp_018.txt.gz
Temp
13 13 13 13 14 14 14 14 14 14 14 14 14 14 14 14 12 13 12 12 13 13 14 14 13 13 14 14 13 13 14 14 14
13 13 14 14 14 14 14 14 14 14 14 14 14 14 14 13 13 12 12 12 12 13 13 13 13 13 13 13 13 14 14 13 13
14 13 14 14 14 14 14 14 13 13 13 13 14 14 14 13 12 12 12 12 13 13 12 12 13 13 13 13 13 13 13 13 13
14 14 14 14 14 14 14 13 13 13 13 13 14 14 13 13 13 12 12 12 13 13 13 13 13 13 13 13 13 13 13 13 13
14 13 14 14 14 14 14 13 13 13 13 13 13 13 13 12 12 12 13 13 13 13 13 13 13 13 13 13 13 13 13 13 13
14 14 14 14 14 14 14 13 13 13 13 13 13 13 13 13 12 13 13 13 13 12 12 12 12 11 11 12 12 12 13 13 13
14 14 14 14 14 14 13 13 13 13 13 13 13 13 13 13 12 12 12 12 12 10 11 10 11 11 10 11 11 11 12 12 12
13 14 14 14 13 14 13 13 13 13 13 13 13 13 13 12 11 11 11 11 9 9 9 10 10 10 10 10 11 11 11 11 11
14 13 12 12 12 12 12 12 13 13 13 13 13 12 12 11 10 10 10 10 10 9 10 10 10 10 10 10 10 10 10 10 10
13 12 12 12 12 12 12 12 13 13 13 13 12 12 11 10 10 10 10 10 10 9 9 9 9 9 9 10 10 10 10 10 10
12 12 12 12 12 12 12 13 13 13 13 12 12 11 10 10 9 9 9 9 9 9 9 9 9 9 9 9 10 10 10 10 11
12 12 12 12 12 12 12 13 13 13 13 12 11 11 10 10 9 9 8 9 9 9 9 9 9 9 9 9 9 9 10 10 10
12 12 12 12 12 12 13 13 13 13 12 12 11 11 10 9 8 8 8 8 8 9 9 8 8 9 9 9 9 9 9 9 9
13 12 12 12 11 12 12 12 12 12 12 12 11 11 10 8 8 7 8 8 8 7 7 8 8 8 8 8 8 8 8 8 8
12 12 12 11 11 12 12 12 12 12 12 11 11 10 9 8 8 7 7 6 7 7 7 7 8 7 7 7 7 7 7 7 7
12 12 12 11 12 12 11 11 11 11 11 11 10 9 9 8 8 6 6 7 6 6 6 7 6 6 6 6 6 6 6 7 6
13 13 12 11 12 11 11 11 11 10 10 10 9 9 8 7 7 7 7 6 6 5 5 6 6 6 5 5 5 5 5 5 5
12 12 12 12 11 11 11 10 10 10 9 9 9 8 8 8 7 7 6 5 5 4 5 5 4 4 4 4 4 3 3 4 3
11 11 11 11 11 11 10 10 9 9 9 8 7 7 7 6 6 6 6 5 5 5 4 4 4 3 3 2 2 2 1 1 -1
11 11 11 11 11 10 10 9 9 8 8 7 7 6 5 4 3 3 4 4 4 4 3 2 2 2 1 1 1 1 0 -0 -2

GFSFLT1_850_temp_021.txt.gz
Temp
14 14 14 14 14 14 14 14 14 14 14 14 14 14 14 13 12 12 12 12 12 13 14 13 13 13 13 13 14 14 14 14 14
14 14 14 15 15 15 14 14 14 14 14 14 14 14 13 13 13 13 12 12 12 13 13 13 13 13 13 13 13 13 13 13 14
14 14 14 15 15 15 15 14 14 14 14 14 13 13 13 12 12 12 12 12 12 13 11 12 13 13 13 13 13 13 13 13 13
14 14 15 15 15 15 14 14 14 14 13 13 13 13 12 12 13 13 13 12 13 13 13 13 13 13 13 13 13 13 13 13 13
14 14 15 15 15 15 14 14 14 14 14 13 13 13 13 13 13 12 13 13 13 13 13 13 11 11 12 13 13 13 13 13 13
14 14 15 15 15 14 14 14 14 13 13 13 13 13 13 13 13 13 13 12 12 11 11 11 10 10 10 12 12 12 12 12 13
14 14 14 14 14 14 13 13 13 13 13 13 13 13 13 13 12 12 12 11 10 9 9 9 10 9 10 10 11 11 11 11 12
15 14 14 14 13 13 13 14 13 13 13 14 14 13 13 13 12 11 11 10 9 9 8 9 9 9 10 10 10 10 10 10 10
14 13 13 13 13 13 13 13 13 13 14 13 13 13 12 12 11 11 10 10 9 9 9 9 9 9 9 9 10 10 10 10 10
14 13 12 13 12 13 12 12 13 13 13 13 13 13 11 12 11 10 10 10 9 9 9 9 9 9 9 9 9 10 10 10 10
13 12 12 12 12 12 12 12 13 13 14 13 13 12 11 11 10 10 9 9 9 9 9 9 9 9 9 9 9 9 10 10 10
13 12 12 12 13 12 12 13 13 13 13 13 13 12 11 10 10 9 9 9 9 9 9 9 9 9 9 9 9 9 9 9 9
12 12 12 12 12 12 12 13 13 13 13 12 12 12 11 9 9 9 8 9 9 9 9 9 9 9 9 8 8 8 8 8 8
12 12 12 12 12 11 12 12 12 12 12 12 12 11 11 10 8 8 8 8 8 7 8 8 8 8 8 8 8 8 8 7 8
12 12 12 12 11 12 12 12 12 12 12 12 12 10 10 9 8 8 8 8 8 7 7 7 7 7 7 7 6 6 6 6 6
13 12 12 12 11 12 12 12 12 11 11 11 11 10 9 9 8 7 7 7 7 7 6 6 6 6 6 5 5 6 5 4 5
12 13 12 12 12 12 12 11 11 11 11 11 10 10 9 9 8 7 6 6 6 5 5 5 5 5 5 4 4 4 4 4 4
13 13 12 12 12 12 11 11 11 11 10 10 10 9 9 8 8 7 6 6 6 5 5 5 4 4 4 3 3 3 2 2 0
12 12 12 12 12 12 11 11 10 10 10 9 9 9 8 8 7 6 6 6 5 5 5 4 4 3 2 2 2 1 1 0 -1
12 11 11 11 11 11 11 11 10 10 9 9 8 8 7 6 6 6 6 6 5 5 5 4 3 2 2 1 0 -0 -0 -1 -2

GFSFLT1_850_temp_027.txt.gz
Temp
15 15 15 15 15 15 15 15 14 14 14 14 13 13 13 13 13 13 12 12 13 12 13 13 13 13 13 13 13 13 13 14 14
15 15 15 15 15 15 15 14 14 14 14 13 13 13 13 13 12 12 12 12 12 12 13 12 13 13 13 13 13 13 13 13 13
15 15 15 15 14 14 14 14 14 13 14 14 13 13 13 13 12 12 12 12 12 12 13 13 12 13 13 12 13 13 13 13 13
15 15 15 15 14 14 14 13 13 13 14 14 14 14 13 13 13 13 12 12 12 12 13 12 12 12 12 12 12 12 12 12 12
15 15 15 15 14 13 13 13 13 13 13 14 14 13 13 13 13 13 12 12 12 12 12 12 11 11 10 11 12 12 12 12 12
14 14 15 15 14 13 14 13 13 13 13 13 13 13 13 13 12 12 12 11 11 11 11 11 10 10 9 10 11 11 11 12 12
14 14 14 14 14 14 13 13 13 13 13 13 13 13 13 12 12 12 11 10 10 9 9 9 9 8 9 10 10 10 10 11 11
14 14 14 14 13 14 13 13 13 13 13 13 13 13 13 12 12 11 10 10 9 8 8 8 8 8 9 9 9 10 10 10 10
14 14 13 13 13 13 13 13 13 13 13 13 13 13 13 12 11 11 10 9 9 9 9 9 9 8 8 9 9 9 10 10 10
14 14 13 13 13 13 13 13 13 12 13 13 13 13 12 12 11 10 10 9 9 9 9 9 9 9 9 9 9 9 10 10 10
14 13 13 13 13 12 12 12 12 12 13 13 13 12 12 11 11 10 10 9 9 9 9 9 9 9 8 9 9 9 9 9 9
13 13 13 13 12 12 12 12 12 12 12 12 12 12 12 11 10 10 9 9 9 8 8 8 8 8 8 8 8 8 9 9 9
13 13 13 12 12 12 12 12 11 12 12 12 12 12 11 11 10 9 9 9 9 8 8 8 8 8 7 7 7 7 7 8 8
13 12 13 12 12 11 11 11 11 12 12 12 12 11 11 10 9 9 9 8 8 8 8 7 7 7 7 7 7 7 7 7 7
13 13 12 12 12 11 11 11 11 12 12 12 11 11 10 9 9 8 8 8 7 7 7 7 7 7 7 7 6 6 5 5 4
13 13 12 11 12 12 11 11 11 12 12 11 11 10 10 9 8 8 7 7 7 7 7 7 7 7 6 6 6 6 5 4 3
13 13 12 12 11 11 11 11 12 12 11 11 10 9 9 8 8 8 7 7 7 6 6 6 6 6 6 6 5 5 5 4 2
13 13 13 12 12 12 12 11 12 12 11 11 11 10 10 9 8 8 7 7 6 6 5 5 5 5 5 5 5 4 3 3 1
13 13 14 12 12 12 12 11 12 11 11 11 11 10 10 10 9 7 7 7 6 6 5 5 5 4 4 4 3 3 2 1 -1
15 14 14 13 13 13 12 12 11 11 11 11 11 10 10 9 9 8 7 6 6 5 5 5 4 4 4 3 3 2 2 1 1

GFSFLT1_850_temp_030.txt.gz
Temp
15 15 15 15 15 15 14 14 14 14 14 14 14 13 13 13 13 13 13 12 13 12 13 13 13 13 13 13 13 13 13 13 14
15 15 15 15 15 15 14 14 14 14 13 13 13 13 13 13 12 12 12 12 12 13 13 12 13 13 13 13 13 13 13 13 13
16 15 15 15 15 14 14 14 14 14 14 13 13 13 13 12 12 12 12 12 12 13 13 13 12 12 12 13 13 13 13 13 13
15 15 15 15 15 14 13 13 13 13 13 13 13 13 13 12 12 12 12 12 12 13 13 12 12 11 12 12 12 13 13 13 13
15 15 15 14 14 13 13 13 14 14 14 13 13 13 13 13 13 12 12 12 12 12 12 11 10 11 10 10 10 11 12 13 13
14 14 14 14 13 13 13 13 14 13 13 13 13 13 13 13 13 12 12 11 11 11 11 11 10 9 9 9 10 11 11 12 12
14 14 14 14 13 13 13 13 13 13 13 13 13 13 13 13 12 12 11 11 10 10 9 10 9 9 10 10 10 10 10 10 11
14 14 14 14 14 13 13 13 13 13 13 13 13 13 13 13 12 11 10 9 9 8 8 8 8 9 10 10 10 10 10 10 10
14 14 13 13 14 13 13 13 13 13 13 13 13 13 13 12 11 11 10 9 9 9 9 9 9 9 9 10 10 10 10 10 10
14 14 13 13 13 13 13 13 12 12 12 13 13 13 13 12 11 11 10 9 9 9 9 9 9 9 9 9 10 10 10 10 10
14 14 13 13 13 13 12 12 12 12 12 13 13 13 12 12 11 10 10 9 9 9 9 9 9 8 8 8 9 9 9 9 9
14 13 13 13 13 12 12 12 12 12 12 12 12 12 12 11 11 10 9 9 9 9 8 8 8 8 8 8 8 8 9 9 9
14 13 13 13 12 12 12 12 12 11 12 12 12 12 11 11 10 9 9 9 8 8 8 8 8 8 8 8 8 7 8 8 8
14 13 13 12 12 12 12 12 11 11 11 12 12 11 11 10 10 9 9 8 8 8 8 8 8 8 8 8 7 7 7 7 7
14 13 12 12 12 12 11 11 11 11 11 11 11 11 11 10 9 9 8 8 7 7 7 8 8 7 7 7 7 7 6 6 6
14 13 12 12 12 12 11 11 11 11 11 11 11 11 10 10 9 8 8 7 7 7 7 7 7 7 7 7 6 6 6 5 5
15 14 13 12 11 11 11 11 11 11 11 11 11 10 9 9 9 8 8 8 7 7 7 7 7 6 6 6 6 6 5 5 5
14 13 13 13 12 12 12 12 11 11 11 11 11 10 11 9 9 8 8 8 8 7 7 6 6 6 6 6 5 5 4 4 3
15 14 14 14 13 13 13 12 12 11 11 11 11 11 11 10 9 9 9 8 8 7 6 6 6 5 5 5 5 4 4 3 3
15 15 14 13 14 13 13 12 12 12 11 11 11 11 10 10 10 9 9 8 8 7 6 6 5 5 5 4 3 3 3 2 2

GFSFLT1_850_temp_033.txt.gz
Temp
15 15 15 15 14 14 14 14 14 14 14 14 14 13 13 13 13 13 13 12 13 13 13 13 13 13 13 13 13 13 13 13 14
15 15 15 15 15 15 14 14 14 14 13 13 13 13 13 13 13 13 13 12 12 13 13 13 13 13 13 13 13 13 13 13 13
15 15 15 15 14 14 14 13 14 14 14 14 14 13 13 13 13 12 12 12 13 13 13 13 12 12 12 12 12 12 12 13 13
15 15 14 14 14 13 13 13 14 14 14 14 13 13 13 13 13 13 12 12 12 13 12 11 11 11 12 12 12 12 13 13 12
15 15 14 14 13 13 12 13 13 14 14 13 13 13 13 13 13 13 12 12 12 12 11 11 10 10 11 11 11 12 12 12 13
15 14 14 14 13 12 12 13 13 13 13 13 13 13 13 13 13 12 12 11 11 11 11 10 10 9 10 10 11 11 12 12 12
15 14 14 14 12 13 13 13 13 13 13 13 13 13 13 13 12 12 11 11 10 10 10 10 10 9 10 10 10 11 11 11 11
14 14 14 14 14 14 13 13 13 13 13 13 13 13 13 13 13 11 10 10 9 9 9 9 9 10 10 10 10 10 11 11 11
14 14 14 14 14 14 14 13 13 13 13 13 13 13 13 13 12 11 10 9 10 9 10 10 10 10 10 10 10 10 10 10 11
14 14 14 14 14 14 14 13 13 13 13 13 13 13 13 12 12 11 10 10 9 9 9 9 9 9 10 10 10 10 10 10 10
15 14 14 13 13 13 13 13 13 13 12 12 13 13 13 12 11 11 10 10 9 9 9 9 9 9 9 9 10 10 10 10 10
15 14 14 13 13 13 13 13 12 12 12 12 12 12 12 12 11 11 10 9 9 9 9 9 9 9 9 9 9 9 9 9 9
14 14 14 13 13 13 12 12 12 12 12 12 12 12 12 11 11 10 10 9 9 9 9 9 9 8 8 8 8 8 8 8 8
14 14 14 13 13 12 12 12 12 12 11 11 12 12 11 11 10 10 9 9 9 9 9 9 8 8 8 8 8 8 8 7 7
14 14 13 13 12 12 12 11 11 11 11 11 11 11 11 10 10 9 9 9 9 9 9 8 8 8 8 8 7 7 7 6 6
15 14 14 13 12 12 12 11 11 11 11 10 11 11 10 10 10 9 9 9 8 8 8 8 8 8 7 7 7 7 6 6 6
15 15 14 13 12 12 11 11 11 11 10 10 10 10 9 9 10 9 9 8 8 8 8 8 7 7 7 7 6 6 6 6 5
16 16 14 12 12 12 12 12 11 11 11 11 11 10 11 10 9 9 9 8 8 8 8 7 7 7 6 6 6 6 6 5 5
16 16 15 15 13 13 13 13 12 12 11 11 11 11 11 11 10 9 9 8 8 8 8 7 7 6 6 6 6 5 5 4 4
16 16 15 15 15 13 13 13 12 12 12 12 11 11 11 11 11 11 10 9 9 8 7 7 6 6 5 5 5 4 4 4 3

GFSFLT1_850_temp_036.txt.gz
Temp
16 16 15 15 15 14 14 15 15 15 14 14 14 13 13 13 12 12 13 12 13 13 13 13 13 13 13 14 13 13 13 13 14
16 16 16 15 14 14 15 15 15 15 14 14 14 14 14 12 12 12 12 12 13 13 13 13 13 13 13 13 13 13 13 13 13
15 15 15 15 15 15 14 14 14 14 14 14 13 13 13 12 12 12 11 13 13 13 13 12 12 12 13 13 13 13 13 12 13
15 15 15 14 14 14 13 13 14 14 14 14 14 13 13 12 12 12 12 12 12 12 12 11 11 11 12 12 13 13 13 13 13
15 15 15 15 14 13 13 14 14 14 14 14 14 14 13 13 13 12 11 13 12 12 11 11 10 10 11 11 12 13 13 13 13
15 15 15 14 14 13 14 14 14 14 13 13 13 13 13 13 12 11 12 12 12 11 10 10 10 10 10 11 11 11 12 12 12
12 14 14 14 13 13 14 14 14 13 13 13 13 13 13 12 11 11 11 11 11 11 11 10 10 10 10 11 11 11 11 11 11
12 12 14 14 13 13 13 13 13 13 13 13 13 13 13 11 11 10 11 10 10 11 10 10 10 10 10 11 11 11 11 11 11
12 12 12 12 12 12 13 13 14 13 13 13 13 14 13 11 10 10 10 10 10 10 10 10 10 10 10 10 11 11 11 11 11
12 12 12 12 11 12 13 13 13 13 13 13 13 13 13 12 10 9 10 10 10 10 10 10 10 10 10 10 10 10 10 11 11
12 12 12 12 12 13 13 13 13 13 13 13 12 13 13 12 10 9 10 10 10 10 10 10 9 10 10 10 10 10 10 10 10
12 12 13 13 12 13 13 13 13 13 12 12 12 12 12 12 11 10 8 10 10 9 10 9 10 9 9 9 9 9 10 10 10
14 12 12 12 12 13 13 13 12 12 12 12 12 12 12 11 11 11 10 9 9 10 9 9 9 9 9 9 8 8 8 9 9
14 12 12 11 11 13 13 13 12 12 12 12 11 12 11 11 11 11 10 10 9 9 10 9 9 9 8 8 8 8 8 8 8
15 14 13 11 12 13 13 12 12 12 11 11 11 11 11 11 10 10 10 10 9 9 9 9 9 9 8 8 8 8 8 7 7
16 15 14 13 13 13 13 12 12 11 11 11 10 11 11 10 10 9 10 9 9 9 9 8 8 8 8 8 8 7 8 7 7
16 16 15 14 14 13 13 12 12 11 11 11 9 9 9 10 10 10 10 9 9 9 9 8 8 8 8 8 7 7 7 7 6
17 17 16 15 14 14 14 13 12 12 11 11 10 9 10 8 10 10 9 9 9 9 9 8 8 8 7 7 7 7 7 6 6
16 16 15 16 16 15 14 12 13 12 12 11 11 11 11 10 9 9 9 9 9 9 9 8 8 8 7 7 7 7 6 6 6
16 17 16 15 15 15 14 13 12 12 12 12 12 11 11 11 11 9 10 9 9 9 8 8 8 8 7 7 7 6 5 5 5

GFSFLT1_850_temp_039.txt.gz
Temp
16 16 15 14 14 14 14 15 15 15 14 14 14 14 13 13 13 13 13 12 13 13 13 14 13 13 14 13 13 13 13 14 14
16 16 16 15 15 15 15 15 15 15 14 14 14 14 13 13 13 13 12 13 13 13 13 13 13 13 13 13 13 13 13 13 13
16 16 16 15 15 15 15 15 15 15 14 14 14 14 14 13 12 12 12 13 13 13 13 13 12 13 13 13 13 13 13 13 13
16 16 16 16 15 15 15 14 14 15 15 15 14 14 14 12 12 12 12 13 13 12 12 12 11 12 13 12 13 13 13 13 13
16 16 15 15 15 14 14 14 15 15 15 15 14 14 14 12 13 12 13 13 12 12 11 11 10 11 11 11 12 12 13 13 13
15 15 15 15 14 13 14 14 14 14 15 14 14 14 12 12 12 12 13 12 12 11 11 10 11 11 11 11 12 12 12 12 12
13 14 14 14 14 13 14 14 14 14 14 14 14 13 13 12 12 11 12 12 12 11 11 11 11 11 11 11 11 11 11 12 12
13 13 14 14 13 13 14 14 14 13 13 13 12 13 13 12 12 11 11 11 11 11 11 11 11 11 11 11 11 11 11 11 12
13 13 12 13 12 12 13 13 12 14 14 13 12 13 12 12 12 11 11 10 11 11 10 11 11 11 11 11 11 11 11 11 11
13 13 12 12 13 13 12 12 12 13 13 13 13 12 12 11 11 10 10 10 10 10 10 10 11 10 11 11 11 11 11 11 11
13 13 12 12 13 13 12 12 12 12 13 13 13 12 12 11 11 10 11 10 10 10 10 10 10 10 11 10 10 10 10 10 11
13 13 12 13 13 12 12 12 12 12 13 13 13 12 11 11 11 10 9 11 11 10 10 10 10 10 10 11 10 10 10 10 10
13 13 13 13 13 12 12 11 12 13 13 12 12 12 12 11 10 10 9 9 10 10 10 10 10 10 10 10 10 10 9 10 10
13 13 13 12 12 12 12 11 12 12 12 12 12 12 11 11 10 10 10 9 8 10 11 10 10 10 9 9 9 9 9 9 10
13 13 13 13 12 12 11 11 12 12 12 12 11 11 11 10 10 10 10 9 10 8 10 10 10 9 9 9 9 9 9 9 9
13 13 13 13 12 12 11 11 12 12 11 11 11 10 11 11 10 10 9 10 10 9 10 10 10 10 9 9 9 9 8 8 8
13 14 14 13 13 12 12 12 12 12 12 12 11 10 9 10 10 10 9 9 9 9 10 9 9 9 9 9 9 8 8 8 8
13 13 13 13 13 13 13 12 12 13 12 12 12 10 10 11 10 10 10 9 8 9 10 9 9 9 8 9 8 8 8 8 8
13 13 13 13 13 12 14 14 13 12 13 11 12 11 11 11 9 9 9 9 8 9 9 9 9 9 8 8 8 8 8 7 7
15 13 13 13 14 13 13 13 14 13 12 12 12 11 11 11 11 11 10 9 9 8 8 8 8 8 7 7 7 7 7 6 6

GFSFLT1_850_temp_042.txt.gz
Temp
16 15 15 14 14 14 14 15 15 15 15 14 14 14 13 13 13 13 12 13 14 13 13 13 13 13 13 13 13 14 14 13 14
16 16 15 15 15 15 15 15 15 15 15 15 14 14 13 13 13 13 12 13 14 13 13 13 12 13 13 13 13 12 13 13 13
17 16 16 16 15 15 15 15 15 15 15 15 14 14 13 12 13 13 13 14 14 13 13 13 13 13 13 13 13 13 13 13 13
16 16 16 16 16 16 15 15 15 15 15 15 15 14 13 13 13 12 13 13 13 12 12 12 12 12 13 13 13 13 13 13 12
16 16 16 16 16 16 15 15 15 15 15 15 15 14 14 14 14 13 13 13 12 12 11 12 12 12 12 12 13 13 13 13 13
15 15 15 16 16 16 15 15 15 15 15 15 14 14 14 13 13 13 13 13 12 11 11 11 12 12 12 12 12 12 12 12 12
16 16 15 15 15 15 15 15 15 15 14 14 14 14 13 13 12 13 12 12 12 11 11 11 11 11 11 11 11 12 12 12 12
14 15 15 15 15 15 15 15 15 14 15 15 14 14 14 12 12 12 12 12 12 12 12 12 12 11 11 11 11 12 12 12 12
14 14 15 15 15 15 15 15 14 15 14 14 14 14 14 12 12 12 12 12 11 12 12 12 12 11 11 12 12 12 12 12 12
13 14 13 14 14 13 13 13 13 14 14 14 14 14 14 12 12 12 12 12 11 11 11 11 11 11 11 11 12 12 12 12 12
14 14 13 13 13 13 12 13 13 13 13 14 13 13 13 12 12 12 12 12 12 11 11 11 11 11 11 11 11 11 11 11 11
14 14 14 13 13 13 12 13 13 13 13 13 13 13 13 13 11 12 12 12 12 12 11 11 11 11 11 11 11 11 10 11 11
14 13 14 14 13 12 12 12 12 12 13 13 13 13 13 13 12 11 12 12 12 12 11 11 11 10 10 11 11 11 10 11 11
14 14 13 14 13 13 12 12 12 12 12 13 13 12 12 12 12 11 11 11 12 12 11 11 11 10 10 10 10 10 10 11 11
14 14 13 13 13 13 12 12 12 12 12 12 11 12 12 12 11 11 11 10 11 12 11 11 11 10 10 10 10 10 10 10 10
15 15 15 13 13 13 13 12 12 12 11 11 10 10 11 11 11 11 11 11 10 10 11 11 10 10 10 10 10 9 9 9 9
15 15 16 15 13 13 13 13 13 12 11 11 10 10 10 11 11 10 10 10 11 10 11 11 10 10 10 10 9 9 9 9 9
15 14 14 15 15 13 12 13 13 12 12 11 12 10 11 11 11 11 10 10 10 10 9 10 10 10 10 10 9 9 8 8 8
15 14 14 13 13 14 14 13 13 12 12 11 11 11 12 11 11 11 10 9 9 9 9 9 9 9 9 9 9 9 9 8 8
14 14 13 13 12 12 13 13 13 13 12 12 12 11 11 11 12 12 11 10 9 9 9 9 8 7 10 8 9 10 9 8 7

GFSFLT1_850_temp_045.txt.gz
Temp
15 15 14 14 14 14 15 16 15 15 15 14 14 13 13 13 13 13 13 14 13 14 14 13 13 13 13 13 14 13 13 13 13
17 15 15 14 15 15 16 16 15 15 15 14 14 13 13 12 12 13 13 14 13 13 13 13 13 13 13 13 13 13 13 13 13
17 16 16 16 15 16 16 16 15 15 15 15 14 13 13 12 13 13 13 14 13 13 13 13 13 14 13 13 13 13 13 13 13
17 17 16 16 16 16 16 16 16 16 15 15 14 14 14 13 14 14 14 14 13 12 12 13 13 13 13 13 13 13 13 13 13
17 17 17 17 16 16 16 16 16 16 16 15 15 15 15 14 14 14 13 13 12 11 12 13 13 13 13 13 13 13 13 13 13
17 16 16 16 16 16 16 16 16 16 15 15 15 15 15 15 15 14 13 12 12 11 12 12 13 13 13 13 13 13 12 13 12
16 16 17 16 17 16 16 16 16 16 16 15 15 15 15 15 15 14 13 12 12 12 12 12 13 13 13 13 13 12 12 12 12
16 16 16 16 16 16 16 16 16 16 16 15 15 15 15 14 15 14 13 13 13 13 13 13 13 13 12 12 12 12 12 12 12
15 15 15 15 15 15 15 15 15 15 16 16 15 15 15 14 14 13 13 13 13 13 13 13 13 13 12 12 12 12 12 12 12
14 14 14 15 15 15 15 15 14 14 14 14 14 15 14 15 14 14 13 13 13 13 12 12 12 12 12 12 12 12 12 12 12
14 14 14 14 14 15 15 14 14 14 14 14 14 14 13 14 14 13 13 13 13 13 12 12 12 12 12 12 12 12 11 12 12
14 14 14 14 14 14 13 13 12 13 13 14 14 13 13 13 13 13 12 13 13 13 12 11 12 12 12 12 12 11 11 12 12
14 14 14 14 14 13 13 13 12 12 12 13 13 13 13 12 13 13 12 13 12 12 12 11 12 11 12 12 12 11 11 11 12
15 15 15 14 14 13 13 13 13 12 12 12 12 12 12 12 11 12 12 12 12 12 12 11 12 11 11 11 11 11 11 11 11
14 15 14 14 14 14 13 13 13 12 12 12 12 12 12 12 12 11 12 12 12 12 12 11 11 11 11 11 10 10 10 10 11
14 14 14 14 14 15 14 13 13 12 12 11 11 11 11 11 11 11 10 11 12 12 12 11 11 11 10 10 10 10 10 10 10
14 14 14 14 14 14 14 13 13 13 12 11 11 10 10 11 12 11 11 10 10 11 11 11 11 10 10 10 10 10 9 9 9
15 14 14 14 14 13 13 14 14 14 13 13 11 10 10 12 13 12 11 11 10 10 11 10 10 10 10 9 9 9 9 9 8
14 14 14 13 13 13 13 12 13 13 14 12 11 11 12 12 12 13 12 11 10 9 9 9 9 9 10 9 9 8 8 8 8
13 13 14 13 13 13 13 13 12 12 13 13 12 12 10 10 11 11 12 11 10 9 9 9 8 9 8 9 8 8 8 5 7

GFSFLT1_850_temp_048.txt.gz
Temp
15 14 15 15 15 15 16 15 15 15 15 14 14 13 13 13 13 13 14 14 14 14 14 13 13 13 14 14 14 14 13 13 14
16 15 15 15 15 16 16 16 15 15 15 14 14 14 13 13 13 13 14 13 13 13 13 13 13 13 14 13 13 14 13 13 13
17 16 16 16 16 16 16 16 16 15 15 15 15 14 14 14 14 14 14 14 14 13 13 13 13 14 13 13 13 13 13 13 13
17 17 17 17 16 16 16 16 16 16 15 15 15 14 15 15 14 15 14 14 13 12 12 13 13 13 13 13 14 14 14 14 13
17 17 17 17 17 16 16 16 16 16 16 15 15 15 15 15 15 15 15 14 12 12 13 13 13 13 14 14 13 14 13 13 13
17 17 17 16 16 16 16 16 16 16 16 15 15 15 15 15 15 15 14 12 11 12 14 13 13 14 14 14 13 13 13 13 13
17 17 17 16 16 16 15 15 15 15 15 15 15 15 15 16 16 15 14 12 12 12 13 13 13 13 13 13 13 13 13 13 13
17 17 16 17 16 16 15 15 15 15 15 15 15 15 15 15 15 14 14 13 13 13 13 13 13 13 13 12 12 13 13 13 13
16 16 16 16 16 16 16 15 15 15 15 14 14 14 14 14 14 14 13 13 13 13 13 13 14 13 13 12 12 12 12 12 12
16 16 15 15 15 16 15 15 15 15 15 15 15 15 14 14 14 14 13 13 13 12 13 13 12 13 12 12 12 12 12 12 12
15 15 15 14 14 15 15 15 14 14 14 14 14 14 14 14 14 13 13 13 13 12 12 12 12 12 12 12 12 12 12 12 12
15 15 15 14 14 14 14 14 14 14 14 13 14 13 13 14 13 13 13 13 12 12 12 12 12 12 12 11 11 11 12 12 12
15 15 15 14 14 14 14 14 14 13 13 13 13 13 13 13 13 13 12 12 12 12 12 12 12 12 12 11 11 11 11 11 12
15 15 15 14 14 13 13 13 13 13 13 13 12 12 12 12 13 13 12 12 12 12 12 11 11 11 11 11 11 11 11 11 11
14 14 15 14 14 14 14 13 13 13 13 12 12 12 12 12 12 12 12 12 12 11 11 11 11 11 10 10 9 10 10 10 10
14 15 14 14 14 14 14 13 13 13 13 12 12 11 11 11 12 12 12 12 12 11 11 11 11 11 10 9 9 9 10 9 9
14 14 14 14 14 14 14 14 13 13 13 12 12 12 12 12 13 12 12 12 11 11 11 10 10 10 10 10 9 9 9 9 9
14 14 14 14 13 14 13 13 13 13 14 13 11 11 11 12 14 14 13 12 12 11 10 10 9 9 9 9 9 8 8 8 8
14 14 13 14 13 13 13 13 13 12 12 12 12 11 12 12 12 13 13 12 11 10 10 9 9 9 8 8 8 8 7 7 7
13 13 13 13 13 13 13 12 12 12 12 12 12 10 10 11 10 10 11 11 11 11 10 10 9 8 8 7 7 7 7 6 6

GFSFLT1_850_temp_051.txt.gz
Temp
15 15 15 16 16 16 16 16 16 15 15 15 15 15 15 15 15 15 15 14 13 13 14 13 13 14 13 14 13 13 14 14 13
16 16 16 16 16 16 16 16 16 15 15 15 14 14 14 15 15 14 14 14 13 14 14 13 14 13 14 13 13 13 13 13 13
16 16 16 16 16 16 16 16 15 15 15 14 15 14 14 14 14 14 14 14 14 13 14 14 14 14 14 14 14 14 13 13 13
16 16 16 16 16 16 16 16 15 15 15 15 15 14 14 14 15 14 14 14 13 12 14 14 14 14 14 14 13 13 13 13 13
17 16 16 16 16 16 16 16 15 15 15 15 14 14 14 14 14 14 14 13 12 12 13 13 14 14 14 14 14 13 13 13 13
17 17 17 16 16 16 15 15 15 15 15 15 14 14 14 14 14 14 14 13 12 12 14 13 13 14 14 14 14 14 13 13 13
17 17 17 17 17 17 16 16 15 15 15 14 14 14 14 14 14 14 14 12 12 12 13 13 13 13 14 14 14 13 13 13 13
17 17 17 17 16 16 16 16 16 16 15 15 15 15 14 15 15 14 14 12 12 12 13 13 13 13 13 13 13 13 13 13 13
17 17 16 16 16 16 16 15 15 15 15 15 15 15 15 14 14 14 14 13 12 12 12 13 13 13 13 13 13 13 13 12 12
16 16 16 16 15 15 15 15 15 15 15 14 14 14 14 14 14 14 13 13 12 12 12 12 12 13 13 13 13 13 12 12 12
16 15 15 15 15 15 15 15 15 14 14 14 14 14 14 14 14 14 13 13 13 12 12 12 11 12 12 12 12 12 12 12 12
15 15 15 15 15 14 14 14 14 14 14 14 13 13 13 14 14 13 13 12 12 12 12 11 11 11 11 12 12 12 11 11 11
15 15 15 15 14 14 13 13 13 14 13 13 13 13 13 13 13 13 13 12 12 12 12 11 11 11 11 11 10 11 11 11 11
15 15 15 15 14 14 13 13 13 13 13 13 13 12 12 12 12 12 12 13 12 12 11 11 11 11 10 9 8 10 11 10 10
15 15 15 14 14 14 14 13 13 13 13 13 12 12 12 11 12 12 12 12 12 12 12 11 11 10 10 9 7 7 8 10 10
14 14 14 14 14 14 13 13 13 13 13 12 13 13 13 12 12 12 12 12 12 12 12 11 10 10 10 9 9 7 6 6 9
14 14 14 14 14 14 13 13 13 13 13 13 13 11 12 12 12 13 13 13 12 12 12 11 10 10 9 9 9 8 7 6 6
14 14 14 13 13 13 13 13 13 13 13 13 12 11 12 12 12 13 13 14 14 13 12 11 10 10 9 9 9 8 7 6 5
14 14 14 14 14 13 13 13 13 13 12 12 12 11 11 10 10 11 12 13 13 12 12 11 11 10 9 9 8 7 7 5 5
14 14 13 13 13 13 13 13 13 12 12 11 11 11 11 10 10 9 11 11 10 10 10 10 10 10 9 8 8 7 5 5 4

GFSFLT1_850_temp_054.txt.gz
Temp
15 16 15 16 16 16 16 16 16 15 15 15 15 14 14 15 15 15 14 13 14 14 13 13 13 14 14 13 13 13 14 14 14
15 16 16 16 16 16 16 15 15 15 15 15 14 14 14 14 14 14 14 13 12 13 14 13 13 13 13 13 13 13 13 13 14
16 16 16 16 16 16 16 15 15 15 15 14 14 14 14 14 14 14 14 14 14 14 14 14 14 14 14 14 13 13 13 12 13
15 16 16 16 16 16 16 15 15 15 15 15 14 14 14 14 14 14 14 14 13 14 15 15 14 14 14 14 14 13 13 13 12
17 16 16 16 16 16 16 15 15 15 15 15 14 14 14 14 14 14 14 13 12 12 14 15 14 14 15 15 14 14 14 13 13
18 17 16 16 16 16 16 16 16 16 16 15 15 15 15 14 14 14 14 13 12 11 14 13 14 14 14 14 14 14 14 13 13
17 17 17 16 16 16 16 16 16 16 16 15 15 15 15 15 14 14 14 13 12 11 12 12 13 13 14 14 13 13 13 13 13
17 17 17 16 16 16 16 16 15 16 15 15 15 15 15 15 15 14 14 13 12 12 12 13 13 13 13 13 13 13 13 13 13
16 16 16 16 16 16 16 15 15 15 15 15 15 15 14 14 14 14 14 13 12 12 13 12 13 13 13 13 13 13 13 12 12
15 15 16 16 16 15 15 15 15 15 15 14 14 14 14 14 14 14 14 14 13 12 12 12 12 12 12 12 12 12 12 13 13
15 15 15 15 15 15 14 14 14 14 14 14 14 14 14 14 14 13 13 13 13 13 12 12 12 12 12 12 12 12 12 12 12
15 15 15 15 14 14 14 14 14 14 14 14 13 13 13 13 13 13 13 13 13 12 12 12 11 11 10 11 11 12 11 11 11
15 15 15 15 14 14 14 14 14 13 13 13 13 13 13 13 13 12 12 12 12 12 12 12 12 11 11 9 10 10 11 11 10
15 15 15 14 14 14 14 13 13 13 13 13 13 12 12 12 12 12 12 12 12 12 12 12 11 11 11 10 8 8 9 10 10
14 14 14 14 14 14 14 14 13 13 13 13 13 12 12 12 12 12 12 13 12 12 12 11 11 11 11 10 9 8 8 8 10
14 14 14 14 14 14 14 13 13 13 13 12 12 12 12 13 13 13 13 13 13 12 12 11 11 11 10 10 10 9 7 7 6
14 14 14 14 13 13 13 13 13 13 13 12 12 12 11 11 13 13 13 13 12 12 12 11 11 10 10 10 9 9 8 7 7
14 14 14 14 13 13 13 13 13 13 13 12 12 11 12 12 12 12 12 12 12 12 12 12 11 10 10 9 9 9 8 7 7
14 14 14 14 14 14 14 13 13 12 12 12 12 11 11 11 10 11 11 11 11 11 11 10 10 10 10 9 9 8 8 7 6
14 14 13 13 13 13 13 13 12 12 12 11 11 11 10 10 10 9 10 10 10 10 10 9 10 9 9 9 9 8 7 6 5

GFSFLT1_850_temp_057.txt.gz
Temp
15 16 16 17 16 16 16 16 16 16 15 15 15 15 15 15 15 14 13 14 14 13 14 14 14 14 13 14 13 13 14 14 14
16 16 16 17 16 16 16 16 16 16 15 15 15 15 14 14 15 14 14 13 12 14 14 14 14 14 14 14 13 12 13 13 13
17 17 16 17 16 16 16 16 16 15 15 15 15 15 15 15 15 15 14 14 14 14 15 14 14 14 14 14 13 14 13 13 13
16 16 16 17 17 16 16 15 15 15 15 15 15 15 15 15 15 15 15 14 14 15 15 14 15 15 15 14 14 14 14 13 12
17 16 16 16 16 16 16 16 16 16 16 16 15 15 15 15 15 15 15 14 12 13 14 14 14 15 15 15 15 14 14 14 13
17 17 17 17 16 16 16 16 16 16 16 16 15 15 15 15 15 15 15 14 12 12 14 13 14 14 15 15 15 14 14 14 13
17 17 17 17 16 16 16 16 16 15 16 15 15 15 15 15 15 14 14 14 13 12 13 13 13 13 14 14 14 14 14 13 13
17 17 17 16 16 16 16 15 15 15 15 15 15 15 15 15 14 14 14 14 13 13 13 13 13 13 13 13 13 13 13 13 13
16 16 16 16 16 16 16 15 15 15 15 14 14 14 14 14 14 14 14 14 13 13 13 13 13 13 13 13 13 13 13 12 12
16 16 16 16 16 15 15 15 14 14 14 14 14 14 14 14 14 14 13 13 13 12 13 13 13 13 13 13 13 13 13 12 12
16 15 15 15 15 14 14 14 14 14 14 14 14 14 14 14 13 13 13 13 13 13 13 12 12 12 13 13 13 13 12 12 12
15 15 15 14 14 14 14 14 14 14 13 14 14 13 13 13 13 13 13 12 12 12 12 12 12 12 11 11 11 12 12 12 11
15 15 15 14 14 14 14 14 14 14 13 14 13 13 13 13 13 12 12 12 12 12 12 12 12 11 11 10 9 9 10 11 11
14 14 14 14 14 14 14 14 14 14 13 13 13 13 13 13 13 12 13 13 12 12 12 12 11 11 11 10 9 9 8 9 10
15 15 14 14 14 14 14 13 13 13 13 13 13 13 13 13 13 13 13 13 13 12 12 11 11 11 11 10 10 9 9 8 8
14 14 14 14 14 14 14 13 13 13 13 13 13 13 12 12 12 12 13 13 13 12 12 11 11 11 10 10 10 9 8 8 8
14 14 14 14 14 14 14 13 13 13 13 13 12 11 12 12 12 12 12 12 12 12 12 12 12 11 10 10 10 9 9 8 8
14 14 14 14 14 14 14 13 13 13 13 12 12 11 12 11 11 11 12 12 11 11 11 11 11 11 11 10 10 9 9 8 8
13 13 13 13 14 14 14 13 13 12 12 12 12 12 10 10 10 10 11 11 11 11 11 10 10 10 10 10 9 9 9 8 8
13 13 13 13 13 13 13 13 13 12 12 11 12 11 10 10 9 9 10 10 10 10 10 10 10 10 9 9 9 9 8 8 7

GFSFLT1_850_temp_060.txt.gz
Temp
16 16 17 17 16 17 17 16 16 16 16 16 16 15 15 14 13 13 13 14 14 14 14 14 14 14 14 14 13 14 14 14 14
16 16 16 17 17 17 17 17 16 16 16 16 15 15 15 14 14 12 12 13 15 15 15 15 15 14 14 14 13 13 13 13 13
16 16 16 17 17 17 17 16 16 16 16 16 16 16 15 15 15 15 13 15 16 15 15 15 15 15 15 15 14 13 13 13 13
16 16 16 16 16 16 16 16 16 16 16 15 15 16 15 14 15 15 13 14 15 14 14 14 14 15 15 15 15 15 14 13 12
17 16 16 16 16 16 16 16 16 16 16 15 15 15 15 15 15 14 14 14 12 14 14 14 14 15 15 15 15 14 14 15 14
17 17 17 17 16 16 16 16 16 16 16 15 15 15 15 15 15 15 15 14 13 12 13 13 14 14 14 15 15 14 14 14 14
17 17 17 16 16 16 16 16 16 15 15 15 15 15 15 15 15 14 15 14 13 13 13 13 13 14 14 14 14 14 14 14 13
17 17 16 16 16 16 16 16 15 15 15 15 15 15 15 15 14 14 14 14 14 12 12 13 13 13 13 13 14 14 13 13 13
16 16 16 16 16 15 15 15 15 15 15 14 14 14 14 14 14 14 14 14 14 13 13 13 13 13 13 13 13 13 13 13 13
15 15 16 15 15 15 15 15 14 14 14 15 15 14 14 14 14 14 14 14 14 13 12 13 13 13 13 13 13 13 12 12 12
15 15 15 15 15 15 14 13 14 14 14 14 14 14 14 14 13 13 13 13 13 13 13 12 12 12 12 12 12 12 12 12 12
15 15 15 15 15 14 14 14 14 14 14 14 13 13 13 13 13 13 13 13 13 13 12 12 12 11 11 10 10 10 11 11 11
15 15 15 14 14 14 14 14 13 14 13 12 12 12 13 13 13 13 13 13 13 13 13 12 12 11 11 10 9 9 9 9 10
15 15 14 14 14 14 14 14 14 13 13 12 13 13 13 13 13 13 13 13 13 13 12 12 12 11 11 11 10 10 9 9 8
14 14 14 14 14 14 14 14 13 13 13 12 13 13 13 13 13 13 13 13 13 13 12 12 12 11 11 11 10 10 9 9 9
14 14 14 14 14 14 13 13 13 13 12 13 13 12 12 13 13 12 12 12 12 12 12 12 11 11 11 11 10 10 10 10 9
14 14 14 14 14 14 14 13 13 13 13 13 12 12 13 13 12 12 12 12 12 12 12 11 11 11 11 11 11 10 10 9 9
15 15 14 14 14 14 13 13 13 13 13 13 12 12 13 12 12 11 12 11 11 11 11 11 11 11 11 10 10 10 10 9 9
15 14 14 13 13 13 13 14 13 12 12 12 12 11 11 11 10 10 11 11 11 10 10 10 10 10 10 10 9 9 9 9 8
14 14 13 13 13 13 13 13 13 13 12 11 10 10 11 10 10 10 11 11 11 10 10 10 10 10 9 9 9 9 9 9 8

GFSFLT1_850_temp_063.txt.gz
Temp
16 16 16 17 17 16 16 16 16 16 16 16 16 16 15 13 14 14 13 13 15 15 15 15 15 14 14 14 14 14 14 14 14
16 17 17 17 17 16 16 16 16 16 16 16 16 16 16 13 13 13 13 15 15 15 15 15 15 15 15 15 14 14 13 13 13
16 17 17 17 17 16 16 16 16 16 16 16 16 16 16 13 14 14 14 16 16 16 15 15 15 15 15 15 15 14 14 13 13
16 16 17 17 17 17 17 16 16 16 16 16 16 16 16 14 15 14 13 15 16 15 15 15 15 15 15 15 15 15 14 14 13
17 17 17 17 16 17 17 17 17 17 16 16 16 16 15 13 14 13 15 15 15 15 15 14 14 15 15 15 15 15 15 15 14
17 17 17 17 17 17 17 17 17 16 16 16 16 15 14 14 14 14 15 15 14 15 14 14 14 14 14 15 15 14 14 14 14
14 17 17 17 17 17 16 16 16 16 15 16 16 15 13 13 15 14 15 15 15 14 13 13 14 14 14 14 14 14 14 14 14
17 16 17 17 16 16 16 16 16 14 15 15 15 15 15 15 14 14 15 15 15 14 13 13 14 14 14 13 13 14 14 13 13
15 15 14 14 14 14 13 13 13 13 15 15 14 14 14 14 13 13 15 14 14 14 14 13 13 13 13 13 13 13 13 13 13
15 14 14 14 13 13 13 13 13 13 13 13 13 13 13 13 13 14 14 14 14 14 13 12 13 13 13 13 13 13 12 13 13
14 13 14 14 14 13 13 13 13 13 13 13 13 13 13 13 13 13 13 14 14 13 13 13 13 12 12 12 12 13 12 12 12
13 13 13 13 13 13 13 13 13 13 13 13 13 13 13 13 13 13 14 13 14 13 13 13 12 12 12 10 10 10 10 12 11
13 13 13 13 13 13 13 13 13 13 13 13 14 14 13 13 13 13 13 13 13 13 13 13 13 12 12 11 11 10 11 10 11
15 13 13 13 13 13 13 13 13 13 13 13 13 13 13 13 13 13 12 12 12 13 12 13 13 12 12 12 11 11 10 10 10
14 13 13 13 13 14 13 13 13 13 13 13 13 13 13 12 12 12 13 12 12 11 12 12 12 12 12 11 11 11 10 10 10
14 13 14 14 14 14 13 13 13 13 13 13 13 13 13 13 13 13 12 12 12 12 12 12 11 11 11 11 11 11 11 10 10
14 14 13 14 14 13 14 13 13 13 13 12 12 12 12 13 13 13 12 13 12 11 12 11 11 11 11 11 11 11 10 10 10
15 14 14 14 14 14 14 13 12 12 12 11 11 12 13 13 13 12 12 12 12 11 11 11 11 10 10 11 10 10 10 10 10
15 15 15 15 14 14 13 13 13 13 12 11 11 11 11 11 12 12 11 11 11 10 10 10 10 11 10 10 10 10 9 9 9
15 15 14 14 14 13 13 13 13 13 12 11 10 10 10 10 10 10 10 10 11 10 10 10 9 9 9 9 9 9 8 8 8

GFSFLT1_850_temp_066.txt.gz
Temp
17 17 17 17 17 17 17 16 16 16 16 16 16 15 14 14 13 13 15 16 16 16 15 15 15 15 15 14 14 13 14 14 14
17 17 17 17 17 17 17 17 17 17 16 16 16 16 16 15 15 15 16 16 16 16 16 16 16 16 16 16 15 14 13 13 13
17 17 17 17 17 17 17 17 17 17 17 17 16 16 15 15 15 16 15 16 16 15 15 15 16 16 16 16 16 15 14 14 13
17 17 17 17 17 17 17 17 17 17 17 16 16 16 15 16 15 16 16 16 16 15 15 15 15 15 16 16 16 15 15 14 14
17 17 17 17 17 17 17 17 17 17 17 17 16 16 16 16 15 16 15 16 16 15 15 15 15 15 15 15 15 15 15 15 15
18 17 18 17 17 17 17 17 17 17 17 16 16 16 16 15 15 16 15 15 15 16 15 14 14 15 15 15 15 15 15 15 15
17 17 17 17 17 17 17 17 17 16 17 16 16 15 15 15 15 15 15 15 15 15 14 14 14 14 14 14 14 14 15 15 14
16 16 17 17 17 17 17 16 16 16 16 16 15 15 15 15 14 15 15 15 15 15 14 14 14 14 14 14 14 14 14 14 14
16 15 16 16 17 16 16 16 14 14 15 15 15 15 15 15 14 14 14 14 14 14 14 14 14 13 13 14 14 14 13 14 14
15 15 14 15 14 14 14 14 14 14 14 13 14 14 14 14 14 14 14 14 14 14 14 14 13 13 13 13 13 13 13 13 13
15 14 14 15 15 15 15 14 13 14 13 13 13 13 13 14 14 14 14 14 14 14 13 13 13 13 13 13 13 13 13 13 13
14 14 13 14 15 15 14 14 14 14 14 14 14 13 13 13 13 13 14 14 14 14 13 13 13 13 12 12 12 12 11 12 12
14 14 14 14 13 14 14 14 14 14 13 13 13 13 13 13 13 13 13 13 13 13 13 12 12 12 12 12 11 11 11 11 11
15 14 14 14 14 13 13 13 13 13 13 13 13 13 13 13 13 13 13 12 12 12 12 12 12 12 11 11 11 11 11 11 11
14 14 14 13 13 13 13 13 13 13 13 13 13 13 13 13 13 13 13 13 12 12 11 12 12 11 11 11 11 11 11 11 10
14 14 13 13 13 13 13 13 13 13 13 13 13 12 13 13 13 13 13 13 12 12 12 12 11 11 11 11 11 11 11 11 10
14 14 14 14 13 13 13 13 13 13 13 13 12 12 13 13 13 13 13 12 12 12 11 11 11 11 10 10 11 10 11 11 10
14 14 14 13 13 13 12 12 12 12 13 12 12 12 13 13 12 13 12 12 12 11 11 10 10 10 11 10 10 10 10 10 10
15 14 14 14 14 14 14 13 12 11 11 12 11 11 11 11 11 12 12 11 11 10 10 10 9 10 10 10 10 10 10 10 9
15 15 15 15 14 14 14 13 13 12 12 12 10 10 10 10 10 10 10 10 10 11 9 9 9 9 9 9 9 8 8 8 8

GFSFLT1_850_temp_069.txt.gz
Temp
17 17 17 17 17 17 17 17 17 17 16 15 15 14 15 15 16 16 16 17 16 16 16 16 16 16 16 15 14 14 14 14 13
18 18 17 17 17 17 17 17 17 17 17 16 16 16 15 16 16 16 16 16 16 16 16 16 16 16 16 16 16 15 15 14 14
18 18 18 18 18 17 17 17 17 17 17 16 16 16 16 16 16 16 16 16 16 16 16 15 16 16 16 16 16 16 15 15 14
17 18 18 18 18 18 17 17 17 17 17 16 16 16 16 16 16 16 16 16 16 15 15 15 15 15 15 15 15 15 15 15 15
18 17 18 18 18 18 18 17 17 17 17 16 16 16 16 16 16 16 15 15 16 15 15 15 15 15 15 15 15 15 15 15 15
18 18 18 18 18 17 17 17 17 17 17 16 16 16 16 16 15 15 15 15 15 15 15 16 14 15 14 14 14 15 15 15 15
17 17 17 17 17 17 17 17 17 17 17 16 16 16 16 15 15 15 15 15 15 15 15 14 14 14 14 14 14 14 14 14 14
16 17 17 17 17 17 17 17 16 16 16 16 16 16 15 15 15 15 15 15 15 14 14 14 14 14 14 14 14 14 14 14 14
16 16 16 17 17 17 17 16 16 16 15 15 15 15 15 15 14 14 14 14 14 14 14 14 14 13 13 14 14 14 14 13 13
16 16 16 16 17 17 16 16 15 15 15 15 15 15 14 14 14 14 14 14 14 14 13 13 13 13 13 13 13 13 13 13 13
15 15 15 15 16 15 15 15 14 14 14 14 14 14 14 14 14 14 14 14 14 13 13 13 13 12 12 13 13 13 13 12 12
15 15 15 15 15 15 15 14 14 14 14 14 13 14 13 13 13 13 13 13 13 13 13 12 12 12 12 12 12 11 11 12 11
15 15 15 14 14 14 14 14 14 14 14 13 13 13 13 13 13 13 13 13 12 12 12 12 11 11 11 11 11 11 11 11 11
15 15 15 14 14 14 14 13 13 13 13 13 13 13 13 13 13 13 13 13 13 13 12 12 11 11 11 11 11 11 11 11 10
15 14 14 14 13 13 13 13 13 13 13 13 13 13 13 13 13 13 13 13 12 12 12 12 11 11 11 11 11 11 11 11 10
14 14 14 13 13 13 13 13 13 13 13 13 13 13 13 13 13 13 13 12 12 12 12 11 11 11 11 11 11 10 11 11 11
13 13 13 13 13 13 13 12 12 13 12 13 13 12 13 13 13 13 13 12 12 12 12 12 11 11 10 10 10 10 10 10 10
13 13 13 14 13 13 12 12 12 12 12 12 12 12 12 12 12 12 12 12 12 12 11 11 10 10 10 10 10 10 10 10 10
14 14 14 13 13 13 13 13 12 12 12 12 12 11 11 11 10 11 11 11 11 10 10 10 10 10 10 10 9 9 9 9 9
14 14 13 13 13 14 14 14 13 13 12 12 12 11 11 10 10 10 10 10 10 10 10 10 10 10 9 9 9 9 8 8 8

GFSFLT1_850_temp_072.txt.gz
Temp
18 18 17 18 17 17 17 16 16 16 15 15 15 15 15 15 16 16 16 17 17 16 16 16 16 16 16 16 15 15 14 14 14
18 18 18 18 18 17 17 17 17 16 16 16 16 16 16 16 16 16 16 16 16 16 16 16 16 16 16 16 16 15 15 15 14
18 18 18 18 17 17 17 17 17 17 17 16 16 16 16 16 16 16 16 16 16 16 16 16 16 16 16 16 16 16 15 15 15
18 18 18 18 18 17 17 17 17 17 17 16 16 16 16 16 16 16 16 16 15 15 15 15 15 15 15 15 15 15 15 15 15
17 17 17 17 17 17 18 17 17 17 17 16 16 16 16 16 16 15 15 15 15 15 15 15 15 15 15 15 15 15 15 15 15
17 17 17 17 17 17 17 17 17 17 17 17 16 16 16 16 16 15 15 15 15 15 15 15 14 14 14 14 14 14 14 14 14
17 17 17 17 17 17 17 17 17 17 17 16 16 16 16 16 15 15 15 15 14 14 14 14 14 14 14 14 14 14 14 14 14
17 17 17 17 17 17 17 17 16 16 16 16 16 16 15 15 15 15 15 14 14 14 14 14 14 13 13 14 13 13 13 13 13
17 17 17 17 17 17 16 16 16 15 15 15 15 15 15 15 15 14 14 14 14 13 13 13 13 13 13 13 13 13 13 13 13
16 16 17 17 16 16 16 16 16 16 15 15 14 14 14 14 14 14 14 14 13 13 13 13 13 13 13 12 12 12 12 12 12
16 16 16 16 16 16 16 15 15 15 14 14 14 14 14 14 13 13 13 13 13 13 13 12 12 12 12 12 12 12 12 12 11
15 15 16 15 15 15 15 15 14 14 14 14 13 13 13 13 13 13 13 13 13 12 12 12 12 12 12 12 12 11 11 11 11
15 15 15 14 14 14 14 14 14 14 13 13 13 13 13 13 13 13 13 13 13 12 13 12 12 12 12 12 11 11 11 10 10
14 15 15 14 14 14 13 13 13 13 13 13 13 13 13 13 13 13 13 13 13 12 12 12 12 12 11 11 11 11 11 11 10
14 14 14 14 14 13 13 13 13 13 13 13 13 13 12 12 13 13 13 13 12 12 12 12 12 11 11 11 11 11 11 11 10
14 14 14 14 13 13 13 13 13 13 13 13 13 13 13 13 13 13 13 13 13 13 12 12 12 11 11 11 11 10 10 10 10
13 14 14 14 13 13 13 13 13 12 12 13 13 12 12 12 13 13 13 13 12 12 12 11 11 11 11 11 11 11 10 10 10
13 13 13 13 13 13 12 12 12 12 12 12 12 11 12 12 12 12 12 12 12 11 11 11 11 11 10 10 10 10 10 10 10
14 14 13 13 13 13 12 12 12 12 12 12 11 11 11 10 11 11 11 11 11 11 10 10 10 10 10 10 10 9 9 9 9
14 14 14 14 14 13 13 13 13 13 13 12 12 12 11 10 10 9 9 10 10 10 10 9 9 9 9 9 9 9 8 8 8

GFSFLT1_850_temp_075.txt.gz
Temp
17 17 17 17 17 17 17 17 16 16 17 17 16 16 16 16 16 16 16 16 16 16 16 16 16 16 16 16 15 15 14 12 13
18 17 17 17 18 18 17 17 17 17 17 17 17 17 17 16 16 16 16 16 16 16 16 16 16 16 16 16 15 15 15 15 14
18 17 17 17 17 17 17 17 17 17 17 17 17 17 17 16 16 16 16 16 15 15 15 15 15 15 15 15 15 15 15 15 15
18 18 18 17 17 17 17 17 16 16 16 16 17 16 16 16 16 16 16 15 15 15 15 15 15 15 15 15 15 15 15 15 15
18 18 18 17 17 17 17 17 16 16 16 16 16 16 16 16 16 15 15 15 15 15 15 15 15 15 15 14 14 14 14 14 14
17 18 18 18 17 17 17 17 16 16 16 16 16 15 15 15 15 15 15 15 14 15 15 14 14 14 14 14 14 14 14 14 14
17 17 17 17 17 17 17 16 16 16 16 16 15 15 15 15 15 15 15 14 14 14 14 14 14 14 13 13 13 13 13 13 13
17 16 17 16 16 17 17 16 16 16 16 15 15 15 15 15 15 14 14 14 14 14 14 14 13 13 13 13 13 13 13 13 13
16 16 16 16 16 16 16 16 16 15 15 15 15 15 14 14 14 14 14 14 14 13 13 13 13 13 13 13 12 13 13 12 12
16 16 16 16 16 16 15 15 15 15 14 14 14 14 14 14 13 13 13 13 13 13 12 12 12 13 13 13 12 12 12 12 12
16 16 16 15 15 15 15 15 14 14 14 14 14 13 13 13 13 13 13 13 13 12 12 12 12 12 12 12 12 12 12 11 11
15 15 15 15 15 15 15 15 14 14 14 13 13 13 13 13 13 13 13 13 13 13 12 12 13 12 12 12 12 11 11 10 10
14 14 15 15 14 14 14 14 14 14 13 13 13 13 13 13 13 13 13 13 13 12 12 12 12 12 11 12 12 11 11 11 10
14 14 14 14 14 14 14 13 13 13 13 13 13 13 13 13 13 13 13 13 13 12 12 12 12 12 12 11 12 11 11 11 11
14 14 14 14 14 14 13 13 13 13 13 13 13 13 13 13 13 13 13 13 13 13 12 12 12 12 11 11 11 11 11 10 10
14 14 14 14 14 14 13 13 13 13 13 13 13 13 13 13 13 13 13 13 13 12 12 12 12 11 11 11 11 10 10 10 10
14 14 14 14 14 13 13 13 13 13 12 12 12 12 12 13 13 13 13 13 12 12 12 12 11 11 11 11 10 10 10 10 10
14 14 14 13 13 13 13 12 12 12 12 12 12 12 12 12 11 11 11 12 12 11 11 11 11 11 10 11 10 10 10 10 10
14 14 13 13 13 12 12 12 12 12 12 12 12 11 11 11 10 11 11 11 11 10 10 10 10 10 10 10 10 9 9 9 9
14 14 13 13 12 13 13 14 12 12 13 14 13 12 12 11 9 10 11 10 10 10 9 9 9 9 9 10 9 9 9 9 8

GFSFLT1_850_temp_078.txt.gz
Temp
17 17 17 17 17 17 17 17 17 17 17 17 17 17 17 17 17 16 16 16 16 16 16 16 16 16 16 16 15 15 15 12 12
17 17 17 17 17 17 17 17 17 17 16 16 16 16 16 16 16 16 16 16 15 15 15 15 15 15 15 15 15 15 15 15 15
18 18 17 17 17 17 17 16 16 16 16 16 16 16 16 16 16 16 16 15 15 15 15 15 15 15 15 15 15 15 15 15 15
18 18 18 18 17 17 17 17 16 16 16 16 16 16 16 16 15 15 16 15 15 15 15 15 15 15 15 15 15 15 15 15 15
18 17 17 17 17 17 17 16 16 16 16 16 16 16 16 16 16 15 15 15 15 14 14 14 14 14 14 14 14 14 14 14 14
17 17 17 17 16 16 16 16 16 16 16 16 15 15 15 15 15 15 15 15 14 14 14 14 14 14 14 14 14 14 14 14 14
17 17 17 16 16 16 16 16 16 15 15 15 15 15 15 15 15 14 14 14 14 14 14 14 14 14 14 13 13 13 13 13 13
16 16 17 17 16 16 16 16 16 15 15 15 15 14 14 14 14 14 14 14 13 13 13 13 13 13 13 13 13 13 13 13 13
16 16 16 16 16 16 16 16 15 15 15 15 14 14 14 14 14 13 13 13 13 13 13 13 13 13 12 12 12 12 12 12 12
16 16 16 16 16 16 16 15 15 15 14 14 14 14 13 13 13 13 13 13 13 13 12 12 12 12 12 12 12 12 11 11 11
15 15 15 15 15 15 15 15 15 14 14 14 14 14 13 13 13 13 13 13 13 13 12 12 12 12 12 12 12 12 12 12 11
15 15 15 15 15 14 14 14 14 14 14 14 13 13 13 13 13 13 13 13 13 13 13 13 12 12 12 12 12 12 11 11 10
14 14 14 14 14 14 14 14 14 14 13 13 13 13 13 12 13 12 13 13 13 13 13 13 12 12 12 12 12 11 11 11 11
14 14 14 14 14 14 14 13 13 13 13 13 13 13 12 13 13 12 12 13 13 13 12 12 12 12 12 12 12 11 11 11 11
14 14 14 13 13 13 13 13 13 13 12 13 13 13 13 13 13 13 13 13 13 12 12 12 12 12 12 11 11 11 11 10 10
15 14 13 13 13 13 13 13 13 13 13 13 13 13 13 13 13 13 13 13 13 13 12 12 12 12 11 11 11 11 11 10 10
14 14 14 13 13 13 13 13 13 13 12 12 12 12 13 13 13 12 12 12 12 12 12 12 12 11 11 11 11 11 10 10 10
14 14 14 13 13 13 13 13 13 13 12 12 12 12 12 12 11 11 11 11 11 11 11 11 11 11 11 11 10 10 10 10 9
14 14 14 14 13 13 13 13 13 13 12 12 11 11 11 11 11 12 11 11 10 10 10 10 10 10 10 10 9 9 9 9 9
13 13 13 13 12 12 12 12 12 12 13 13 13 12 12 11 10 10 11 10 10 9 9 9 9 9 9 9 9 9 9 9 9

GFSFLT1_850_temp_081.txt.gz
Temp
17 17 18 17 17 17 17 16 16 16 16 16 16 16 16 16 16 16 16 16 15 15 15 15 15 16 16 15 15 15 15 15 14
17 18 18 17 17 17 17 17 16 16 16 16 16 16 16 16 16 16 16 15 15 15 15 15 15 15 15 15 15 15 15 15 15
17 17 17 17 17 17 17 17 16 16 16 16 16 16 16 16 16 16 15 15 15 15 15 15 15 15 15 15 15 15 15 15 15
17 17 17 17 17 16 16 16 16 16 16 16 16 16 15 15 15 15 15 15 15 15 15 15 15 15 14 14 14 14 14 14 14
17 17 17 17 16 16 16 16 16 16 16 15 15 15 15 15 15 15 15 15 15 14 14 14 14 14 14 14 14 14 14 14 14
16 16 16 16 16 16 16 16 16 16 16 15 15 15 15 15 14 14 14 14 14 14 14 14 14 14 13 13 13 14 13 13 13
16 16 16 16 16 16 16 16 16 15 15 15 15 15 15 15 14 14 14 14 14 14 14 13 13 13 13 13 13 13 13 13 13
16 16 16 16 16 16 16 16 15 16 15 15 15 15 15 14 14 14 14 14 14 14 13 13 13 13 13 12 12 13 13 13 13
16 16 16 16 16 16 15 15 15 15 15 15 15 14 14 14 14 14 14 14 13 13 13 12 13 13 13 13 13 12 12 12 12
16 16 16 16 16 16 15 15 15 15 14 14 14 14 14 14 14 13 13 13 13 13 12 12 12 13 12 12 13 12 12 12 12
15 15 15 16 16 15 15 15 14 14 14 14 14 14 13 13 13 13 13 13 13 13 12 13 13 13 12 12 12 12 12 12 12
15 15 15 15 15 15 15 15 14 14 14 14 13 13 13 13 13 13 13 13 13 13 13 13 13 13 13 12 12 12 12 11 12
15 15 15 14 14 14 14 14 14 14 14 13 13 13 13 13 13 13 13 13 13 13 12 12 13 12 12 13 12 11 11 12 11
14 14 14 13 14 14 13 13 13 13 13 13 13 13 13 13 13 13 13 12 12 13 13 13 12 12 12 12 12 11 11 11 11
14 14 14 13 13 13 13 13 13 13 13 12 12 12 13 13 13 13 13 13 13 13 13 13 12 12 12 12 12 11 11 11 11
14 14 14 14 13 13 13 13 13 13 13 12 13 13 13 13 13 13 13 13 13 13 13 12 12 12 12 12 12 11 11 11 10
14 14 14 14 14 13 13 13 13 13 12 13 12 12 12 13 13 12 12 12 12 12 12 12 12 12 12 11 11 11 10 10 10
14 14 14 14 14 14 13 13 13 12 13 12 12 12 12 12 11 12 12 12 11 11 11 11 11 11 11 11 11 10 10 10 9
13 14 14 14 13 12 13 13 13 12 12 12 12 12 11 11 10 12 12 11 11 10 10 10 10 10 10 10 10 10 9 9 8
13 13 14 13 13 12 11 11 12 12 12 12 12 12 12 12 11 11 12 10 10 9 10 9 9 10 9 9 9 9 8 8 8

GFSFLT1_850_temp_084.txt.gz
Temp
17 17 17 16 16 17 16 16 16 16 16 16 17 17 16 16 14 15 15 15 15 16 16 16 16 16 15 15 15 15 15 15 14
17 17 17 17 17 17 16 16 16 16 16 16 16 16 16 15 15 13 12 15 15 15 15 15 15 15 15 15 15 15 15 15 15
17 17 17 16 16 16 16 16 16 16 16 16 16 16 16 15 15 15 13 15 15 15 15 15 15 15 15 15 15 15 15 15 15
17 16 16 16 16 16 16 16 16 16 16 16 16 16 16 14 15 15 13 15 15 14 14 14 14 14 14 14 14 14 14 15 15
17 16 16 16 16 16 16 16 16 16 16 16 16 15 15 15 15 15 14 15 14 14 14 14 14 14 14 14 14 14 14 14 14
16 16 16 16 16 16 16 16 16 16 16 16 16 16 15 15 15 15 15 15 14 14 14 14 14 13 13 13 13 14 14 14 14
12 16 16 16 16 16 16 16 16 16 15 15 15 15 15 15 15 15 15 14 14 14 13 13 13 13 13 13 13 13 13 13 13
15 16 15 15 15 16 16 15 15 15 15 15 15 15 15 14 15 14 14 14 14 14 13 13 13 13 13 13 13 13 13 13 13
14 13 14 15 15 15 15 15 15 15 15 15 14 15 14 14 14 14 14 14 13 13 13 13 13 13 13 12 13 13 12 12 12
16 16 16 16 16 15 15 15 15 15 15 14 14 13 13 13 14 13 14 13 13 13 13 13 13 12 12 12 13 12 12 12 12
16 16 16 16 16 15 15 15 15 14 14 13 13 13 14 13 13 13 13 13 13 13 13 13 13 13 13 13 12 12 12 12 12
15 15 15 15 15 15 15 15 14 14 14 13 13 13 13 13 13 13 12 13 13 13 13 13 13 13 12 13 12 12 12 12 12
15 14 14 14 14 14 14 14 14 13 13 13 13 12 12 13 13 13 13 12 12 12 13 13 12 12 12 12 12 11 11 11 12
14 15 14 14 14 14 14 14 13 12 13 13 13 13 12 13 13 13 13 12 13 12 12 13 13 12 12 12 12 12 11 11 11
14 15 14 13 14 14 14 14 14 13 13 12 12 13 13 13 13 13 12 12 13 13 13 13 12 12 12 12 12 12 11 11 11
14 14 14 13 13 14 14 13 13 13 12 12 13 13 13 13 13 12 13 12 13 13 13 12 12 12 12 12 12 12 11 11 11
13 14 13 13 13 13 13 13 12 12 13 13 13 13 14 13 13 12 13 13 13 13 13 12 12 12 12 12 12 11 10 10 10
13 13 14 14 13 12 12 12 12 13 13 13 13 13 14 13 13 12 12 12 12 11 12 11 11 11 11 11 11 10 10 10 9
13 13 12 13 12 12 12 13 13 12 12 12 12 12 12 12 13 11 11 12 11 11 11 11 11 10 10 10 10 10 9 9 9
12 12 12 13 12 12 12 12 12 12 11 11 11 12 12 12 11 12 11 11 10 10 10 10 10 10 9 9 9 9 9 9 8

GFSFLT1_850_temp_087.txt.gz
Temp
16 16 15 13 14 16 16 16 16 16 17 17 17 16 16 14 13 14 15 16 16 16 16 16 15 15 15 15 15 15 15 15 15
16 16 14 13 16 16 16 16 16 16 16 17 16 16 16 13 13 13 15 16 16 15 15 15 15 15 15 15 15 15 15 15 15
17 17 14 14 16 16 16 16 16 16 16 16 16 16 16 13 13 13 15 16 15 15 15 15 15 15 15 15 15 15 15 15 15
17 17 14 16 16 16 16 16 16 16 16 16 16 16 16 14 14 13 14 15 15 15 14 14 14 14 14 14 14 14 14 14 15
16 16 15 16 16 16 16 16 16 16 16 16 16 16 16 14 15 13 15 15 15 15 14 14 14 14 14 14 14 14 14 14 14
16 15 14 15 15 15 16 16 16 16 16 16 16 16 14 14 13 13 15 15 15 14 14 14 14 14 14 14 14 14 14 14 14
13 15 15 16 15 15 16 16 16 16 16 16 16 15 14 14 14 13 15 15 14 14 14 14 14 13 13 13 13 13 13 13 13
13 15 15 15 15 15 15 16 16 16 14 14 14 14 14 14 13 14 14 14 14 14 14 13 13 13 13 13 13 13 13 13 13
12 15 15 15 15 14 15 15 14 14 14 14 14 14 14 14 14 14 14 14 14 13 13 13 13 13 13 13 13 13 13 12 12
13 13 13 13 13 13 13 13 13 14 14 14 14 14 14 14 14 13 14 14 13 13 13 13 13 13 12 13 13 12 12 13 12
13 13 13 13 13 13 14 14 13 14 14 13 13 14 14 13 13 13 13 13 13 13 13 13 13 13 13 13 13 12 12 12 12
13 13 13 15 15 13 13 13 13 13 14 13 14 14 14 13 13 13 13 13 13 13 13 13 13 13 13 12 12 12 12 12 12
14 14 13 13 13 14 13 14 14 13 13 13 14 13 13 14 14 14 14 13 13 13 12 12 13 12 12 13 12 12 12 12 11
14 14 14 13 13 13 13 13 13 13 13 13 14 14 14 14 14 14 14 14 13 12 12 12 13 13 12 12 12 12 12 11 11
13 14 14 13 13 12 12 13 13 13 13 13 13 13 13 14 14 14 14 13 12 12 12 12 12 12 12 12 12 12 12 11 11
13 13 13 13 13 12 13 12 13 12 13 14 13 13 14 14 14 14 13 13 12 13 13 13 12 11 11 12 12 12 11 11 11
13 13 13 12 13 13 13 12 12 13 13 13 13 13 14 14 13 13 13 12 12 12 13 13 13 12 11 12 12 11 11 11 11
13 13 13 13 13 13 13 13 12 12 13 13 13 14 14 14 13 13 12 12 12 11 12 12 12 12 11 11 11 11 11 10 10
13 13 13 14 13 13 12 12 12 12 12 12 13 13 13 13 14 13 12 13 12 11 11 11 11 12 11 10 10 10 10 9 9
13 12 12 13 12 12 13 12 12 12 12 12 12 12 11 11 11 12 12 11 11 11 10 10 10 10 10 9 10 9 9 9 9

GFSFLT1_850_temp_090.txt.gz
Temp
16 16 15 13 13 13 16 16 17 17 17 16 16 16 15 15 15 15 16 16 16 16 16 16 16 16 15 16 15 15 15 15 15
15 16 13 13 15 16 16 17 17 17 17 17 16 16 15 14 13 16 16 16 16 16 16 16 15 15 15 15 15 15 15 15 15
14 16 13 15 16 15 15 16 17 17 17 17 16 16 15 14 14 15 15 16 15 15 15 15 15 15 15 15 15 15 15 15 15
14 13 14 15 15 15 16 16 16 16 17 16 16 16 15 14 14 14 15 15 15 15 15 15 15 15 15 14 14 14 14 14 14
16 13 13 16 16 15 16 16 16 16 16 16 16 16 15 15 14 14 15 15 15 15 15 15 14 14 14 14 14 14 14 14 14
16 13 13 15 16 15 16 16 16 16 16 16 16 15 15 14 13 14 15 15 15 15 14 14 14 14 14 14 13 14 13 13 13
16 13 13 14 15 15 16 16 16 16 16 16 16 15 15 14 14 14 14 15 14 14 14 14 14 13 13 13 13 13 13 13 13
15 15 13 14 15 15 16 16 16 16 16 15 15 14 14 14 14 14 14 14 14 14 14 13 13 13 13 13 13 13 13 13 13
14 15 15 16 16 15 15 16 15 15 14 13 14 14 14 14 14 14 14 14 14 14 13 13 13 13 13 13 13 13 13 13 13
14 14 15 15 15 15 15 15 14 14 14 14 14 14 14 14 14 14 14 14 14 13 13 13 13 13 13 12 12 12 12 12 12
13 14 14 15 14 14 13 14 14 14 14 14 14 14 14 14 14 13 13 13 13 13 13 13 13 13 13 13 12 12 12 12 12
13 13 13 13 13 14 14 14 14 14 14 14 14 14 14 13 14 13 13 13 13 13 13 13 12 12 13 13 12 12 12 12 12
13 13 14 14 14 14 14 14 14 14 14 13 14 13 14 14 14 14 13 13 13 13 12 12 12 12 13 13 13 12 12 12 12
14 14 14 14 14 14 14 14 14 14 14 13 13 14 14 13 13 14 14 14 13 13 13 12 13 13 13 13 13 12 12 12 11
13 13 13 13 13 13 13 13 13 13 13 13 13 14 13 14 13 14 14 14 13 13 13 13 13 13 12 13 12 12 12 12 11
12 12 13 13 13 13 13 13 13 13 13 13 13 13 13 14 14 14 14 13 13 13 14 13 13 13 12 13 12 12 12 11 11
13 13 13 13 13 13 13 12 12 13 13 13 13 13 13 14 14 14 13 13 12 13 13 13 13 13 13 13 12 12 11 11 10
13 13 13 13 13 13 13 13 12 12 12 13 13 13 13 14 14 13 13 13 13 12 12 12 13 12 12 12 12 11 11 10 10
13 13 14 13 13 13 12 14 13 12 12 12 12 13 13 14 13 13 13 13 13 12 12 11 12 12 11 11 10 10 10 9 9
12 14 14 14 13 13 13 13 14 13 12 12 12 12 12 12 12 12 12 12 12 12 11 11 10 11 10 10 10 10 9 9 8

GFSFLT1_850_temp_093.txt.gz
Temp
16 16 15 15 15 16 17 17 16 16 16 16 16 15 15 15 16 16 16 16 16 16 16 16 16 16 16 15 15 15 15 15 15
14 16 15 14 14 17 17 17 17 16 16 16 15 15 16 16 15 15 16 16 16 16 15 15 15 15 15 15 15 15 15 15 15
14 14 13 13 16 17 17 17 16 16 16 16 16 15 15 15 15 15 15 15 15 15 15 15 15 15 15 15 15 14 14 14 15
14 13 13 14 16 16 16 16 17 16 16 16 15 15 15 15 15 15 15 15 15 15 15 15 15 14 14 14 14 14 14 14 14
15 12 13 15 13 14 16 16 16 16 16 16 16 15 15 15 15 15 15 15 15 15 15 14 14 14 14 14 14 14 14 14 14
14 12 12 13 13 16 16 16 16 16 16 16 15 15 15 14 14 15 15 15 15 15 15 14 14 14 14 13 13 13 13 13 13
13 12 12 13 15 15 16 16 16 16 16 15 15 15 14 14 14 14 14 15 15 15 14 14 14 14 13 13 13 13 13 13 13
15 13 12 14 15 15 16 16 16 16 15 15 15 14 14 14 14 14 14 14 14 14 14 14 13 13 13 13 13 13 13 13 13
15 12 12 15 15 15 15 15 16 15 15 15 14 14 14 14 14 14 14 14 14 14 14 13 13 13 13 13 13 13 13 13 13
15 14 13 16 15 15 15 15 15 15 15 15 14 14 14 14 14 14 14 14 14 14 13 13 13 13 13 13 12 12 12 12 12
14 14 14 15 15 15 15 15 15 15 15 15 14 14 14 14 13 13 13 13 13 13 13 13 13 13 13 13 13 12 12 12 12
13 14 14 15 15 14 15 15 14 14 14 14 14 14 14 13 13 13 13 13 13 13 13 13 13 12 13 13 12 13 12 12 12
12 13 14 14 14 13 14 14 14 14 14 14 14 14 13 14 13 13 14 13 13 13 13 13 13 13 13 13 13 12 12 12 11
13 13 13 13 13 14 14 14 14 14 14 14 14 14 13 13 13 13 14 13 13 13 13 13 13 13 13 13 13 13 12 12 11
12 12 13 13 13 14 14 14 14 14 14 14 14 13 13 13 13 13 14 14 13 13 13 13 14 13 13 13 13 12 12 12 11
13 13 13 13 13 13 14 14 14 14 13 13 13 13 13 13 13 13 14 14 13 13 13 14 14 13 13 13 12 12 12 12 11
12 12 12 13 13 13 13 13 13 13 13 13 13 13 13 13 14 14 13 14 13 13 13 13 13 13 13 13 12 12 11 11 10
13 13 13 13 13 13 13 13 13 13 13 13 13 13 13 13 13 13 13 14 13 13 13 13 12 13 13 12 12 11 10 10 10
12 12 13 13 13 13 13 13 13 13 14 12 12 12 13 12 12 13 13 13 13 13 13 13 12 13 12 12 11 11 10 9 9
13 13 12 13 13 13 14 15 14 14 13 13 13 13 13 13 11 11 12 12 12 11 11 12 11 12 12 11 11 10 9 9 9

GFSFLT1_850_temp_096.txt.gz
Temp
16 16 16 15 15 15 16 17 16 16 16 15 15 16 16 16 15 16 16 16 16 16 16 16 15 15 15 15 15 15 15 15 15
14 16 15 15 15 15 16 16 16 16 16 15 15 15 15 15 16 16 16 16 16 15 15 15 15 15 15 15 15 15 15 15 15
15 15 14 14 15 16 16 16 16 16 16 15 15 16 15 15 15 15 15 15 15 15 15 15 15 15 15 15 14 14 14 14 14
15 15 14 13 15 16 17 16 16 16 16 15 15 16 15 15 15 15 15 15 15 15 15 15 15 14 14 14 14 14 14 14 14
15 14 12 13 15 16 16 16 16 16 16 15 15 15 15 15 15 15 15 15 15 15 15 15 14 14 14 14 14 14 14 13 14
14 13 14 13 14 14 16 16 16 16 15 15 15 15 15 15 15 15 15 15 15 15 14 14 14 14 14 13 13 13 13 13 13
14 13 13 13 13 13 15 16 16 16 15 15 15 15 15 15 15 15 15 15 15 14 14 14 14 14 14 13 13 13 13 13 13
14 13 12 12 13 14 15 15 16 16 15 15 15 15 15 15 15 14 14 14 14 14 14 14 13 13 13 13 13 13 13 13 13
14 13 13 12 14 15 15 15 15 15 15 15 15 15 14 14 15 15 14 14 14 14 14 13 13 13 13 13 13 13 13 13 12
13 13 13 13 14 15 15 15 15 15 15 15 15 15 14 14 14 14 14 14 14 14 13 13 13 13 13 13 13 12 12 12 12
12 12 12 12 14 14 15 15 15 15 15 15 15 15 14 14 14 14 13 13 13 13 13 13 13 13 13 13 13 13 13 12 12
13 12 12 13 15 14 14 14 14 14 15 15 15 15 14 14 14 14 14 13 13 13 13 13 13 13 12 12 12 13 13 12 12
13 13 13 14 14 14 14 14 14 14 15 15 14 14 14 14 13 13 13 13 13 13 13 13 13 12 13 13 13 12 13 12 12
13 12 12 13 14 14 14 14 14 14 14 14 14 14 14 13 13 13 13 13 13 13 13 13 13 13 13 13 13 13 12 12 12
13 13 13 13 13 13 13 14 14 14 14 14 14 14 13 13 13 13 13 13 13 13 13 13 13 13 14 13 13 13 12 12 12
13 13 13 12 12 13 13 13 14 14 14 13 13 13 13 13 13 13 13 13 14 13 13 13 13 14 14 13 13 13 12 12 11
13 13 13 12 12 12 13 13 14 14 13 13 13 13 13 13 13 13 13 13 13 14 13 13 13 14 13 13 13 12 12 12 11
12 12 12 12 12 13 13 13 13 14 13 13 13 12 13 13 13 13 13 13 13 13 13 13 13 13 12 12 12 12 12 11 10
12 12 12 12 13 13 13 13 13 13 13 12 12 13 13 13 13 13 13 13 13 13 13 13 13 12 12 12 12 11 11 10 9
11 12 12 12 12 13 14 14 14 14 14 14 14 13 13 13 13 13 12 12 11 11 13 12 13 12 12 12 11 11 10 10 9

GFSFLT1_850_temp_099.txt.gz
Temp
16 16 16 15 16 16 16 16 16 16 16 16 16 15 16 16 16 16 16 16 16 16 16 15 15 15 15 15 15 15 15 15 15
15 16 15 15 15 15 16 16 16 16 16 16 16 15 15 15 16 16 16 16 15 15 15 15 15 15 15 15 15 15 15 15 15
15 15 15 15 15 15 16 16 16 16 16 16 16 15 15 15 15 15 15 15 15 15 15 15 15 15 14 14 14 14 15 14 14
15 15 15 15 14 15 16 16 16 16 16 15 15 15 15 15 15 15 15 15 15 15 15 14 14 14 14 14 14 14 14 14 14
15 15 15 14 13 15 15 16 16 16 16 15 15 15 15 15 15 15 15 15 15 15 15 14 14 14 14 14 14 14 14 14 13
14 15 15 14 14 16 16 16 16 16 15 15 15 15 15 15 15 15 15 15 15 14 14 14 14 14 14 14 14 14 14 13 13
14 14 14 14 15 16 16 16 16 15 15 15 15 15 15 15 15 15 15 15 14 14 14 14 14 14 13 13 13 13 13 13 13
14 14 14 14 14 14 14 15 15 15 15 15 15 15 15 15 15 14 14 14 14 14 14 14 13 13 13 13 13 13 13 13 13
14 14 14 14 14 13 13 15 15 15 15 15 15 15 15 15 15 14 14 14 14 14 14 13 13 13 13 13 12 12 12 12 12
13 13 13 13 13 12 13 14 15 15 15 15 15 15 15 15 15 14 14 14 14 14 13 13 13 13 13 13 13 12 12 12 12
14 13 13 12 13 12 12 13 14 15 15 15 15 15 14 14 14 14 14 13 13 13 13 13 13 13 13 13 13 13 13 12 12
14 14 12 12 12 12 13 13 13 14 14 15 14 14 14 14 14 14 13 13 13 13 13 13 13 13 12 12 12 13 13 12 12
13 13 13 12 11 12 13 13 13 14 14 15 15 15 14 14 14 14 13 13 13 13 13 13 13 12 12 12 13 13 13 12 12
14 13 13 13 12 12 12 13 14 14 14 14 14 14 14 14 13 13 13 13 13 13 13 13 13 13 12 13 13 13 13 12 12
12 14 13 14 13 12 12 12 13 14 14 14 14 14 14 14 13 13 13 13 13 13 13 13 13 13 13 13 13 13 13 12 12
12 13 13 13 13 15 14 14 13 13 13 13 13 13 13 13 13 13 13 13 13 13 13 13 13 13 13 13 13 13 13 13 12
12 13 12 13 13 13 14 14 13 13 13 12 13 13 13 13 13 13 13 13 13 13 13 13 13 13 13 13 13 13 13 13 12
11 11 12 13 13 13 13 13 13 13 13 13 13 12 13 14 14 13 13 13 13 13 13 13 13 13 13 13 13 13 13 13 11
12 11 11 12 13 12 13 13 13 13 13 13 12 13 14 13 14 14 13 13 13 13 13 13 12 13 13 13 13 13 13 12 10
12 11 11 11 12 12 12 12 12 12 12 13 13 12 13 13 14 14 14 14 13 13 13 13 13 13 12 12 12 12 12 12 11

GFSFLT1_850_temp_102.txt.gz
Temp
16 16 16 16 15 15 16 16 16 16 16 16 16 16 16 16 16 16 16 16 16 16 15 15 15 15 15 15 15 15 15 15 15
16 16 16 16 16 15 15 16 16 16 16 16 16 16 16 16 16 16 16 16 15 15 15 15 15 15 15 15 15 15 15 15 14
15 15 16 15 15 15 15 16 16 16 16 16 16 16 16 16 15 15 15 15 15 15 15 15 15 15 15 15 14 14 14 14 14
15 15 15 15 15 15 15 16 16 16 16 16 16 16 15 15 15 15 15 15 15 15 15 15 14 14 14 14 14 14 14 14 14
15 15 15 15 15 15 15 16 16 16 16 16 16 16 15 15 15 15 15 15 15 15 14 14 14 14 14 14 13 13 14 14 13
14 14 15 15 15 15 15 15 16 16 16 15 15 15 15 15 15 15 15 14 14 14 14 14 14 14 13 13 13 13 13 13 13
15 14 14 14 14 15 15 15 15 16 16 16 15 15 15 15 15 15 15 14 14 14 14 14 14 14 13 13 13 13 13 13 13
14 14 14 14 13 14 14 15 15 15 16 16 16 15 15 15 15 15 14 14 14 14 14 14 13 13 13 13 13 13 13 13 13
15 14 14 14 13 14 14 15 15 15 15 15 16 16 15 15 15 15 14 14 14 14 14 14 13 13 13 13 13 13 13 13 12
15 14 13 13 13 14 13 13 14 15 15 15 15 15 15 15 14 14 14 14 14 14 13 13 13 13 13 13 13 13 13 12 12
14 15 14 14 13 13 13 13 13 14 14 15 15 15 15 15 14 14 14 14 13 13 13 13 13 13 13 13 13 13 13 12 12
14 14 14 14 14 13 13 12 12 13 13 14 14 14 15 15 14 14 14 14 13 13 13 13 13 13 12 12 12 13 12 12 12
14 13 14 13 12 13 12 12 13 13 13 14 14 14 14 14 14 14 14 13 13 13 13 13 13 12 12 12 12 12 13 13 12
13 13 13 13 12 12 12 11 12 13 13 13 14 14 14 14 14 14 14 13 13 13 13 13 13 12 12 12 12 13 13 13 13
13 12 12 12 12 12 13 12 12 12 13 13 13 14 13 14 14 14 13 13 13 13 13 13 13 13 13 12 13 13 13 13 13
13 12 12 12 12 12 12 11 12 12 13 13 12 13 13 13 14 14 13 13 13 13 13 13 13 13 13 13 13 14 13 13 13
13 12 12 12 12 12 12 12 12 12 13 13 12 12 13 13 14 14 14 13 13 13 13 13 13 13 13 13 13 13 13 13 13
12 12 12 11 11 11 11 12 12 12 13 14 13 12 12 14 15 14 14 14 14 13 13 13 13 13 13 13 13 13 13 13 13
12 12 12 12 11 12 12 12 12 13 13 13 12 13 13 13 14 14 15 14 14 14 13 13 13 13 13 13 13 13 12 12 12
12 12 11 11 11 11 11 12 12 12 13 13 13 12 12 12 13 14 14 14 14 14 14 13 13 13 12 12 13 12 13 12 12

GFSFLT1_850_temp_105.txt.gz
Temp
16 16 16 15 15 15 16 16 16 16 16 16 16 16 16 16 16 16 16 16 16 16 16 15 15 15 15 15 15 15 15 15 14
16 16 16 16 15 15 15 16 17 17 16 16 16 16 16 16 16 16 16 15 15 15 15 15 15 15 15 14 14 14 14 14 14
15 15 16 16 15 15 15 15 16 17 16 16 16 16 16 16 16 16 15 15 15 15 15 15 14 14 14 14 14 14 14 14 14
15 15 15 15 15 15 15 16 16 16 16 16 16 16 16 16 16 15 15 15 15 15 15 14 14 14 14 14 14 14 14 14 14
15 15 15 15 15 15 15 16 16 16 16 16 16 16 16 15 15 15 15 15 15 15 15 14 14 14 14 14 14 14 14 14 14
15 15 15 15 14 15 15 15 16 16 15 15 16 16 16 15 15 15 15 15 15 15 14 14 14 14 14 13 14 14 14 13 13
15 15 15 15 14 14 15 15 15 15 15 15 15 16 16 16 15 15 15 15 15 14 14 14 14 13 13 13 13 13 13 13 13
15 15 14 14 14 14 14 14 15 15 15 15 15 15 15 16 15 15 15 14 14 14 14 14 13 13 13 13 13 13 13 13 13
15 15 14 14 14 14 14 14 15 15 15 15 15 15 15 15 15 15 15 14 14 14 14 13 13 13 13 13 13 13 13 13 12
15 14 15 14 13 13 14 13 14 15 14 15 15 15 15 15 15 14 14 14 14 14 14 13 13 13 13 13 13 12 13 13 12
14 14 14 14 13 13 13 13 14 14 14 14 14 14 14 14 14 14 14 14 14 13 13 13 13 13 13 13 13 13 13 12 12
14 14 14 14 13 13 13 12 13 13 14 14 14 14 14 14 14 14 14 14 14 13 13 13 13 13 13 13 13 13 13 13 13
14 14 14 14 14 13 12 13 12 12 13 13 13 14 14 14 14 14 14 14 14 13 13 13 13 13 13 13 13 13 13 13 13
13 13 13 13 13 13 12 12 12 12 12 12 13 13 13 13 13 13 14 14 14 13 13 13 13 13 13 13 13 13 13 13 13
13 13 13 12 12 12 12 12 12 12 11 12 12 12 13 13 13 14 14 14 13 14 13 13 13 13 13 13 13 13 13 14 14
13 13 13 13 12 12 12 12 12 12 12 11 12 13 13 13 13 13 14 14 14 13 13 13 13 13 13 13 13 13 13 14 14
13 13 12 12 12 12 12 12 12 11 11 11 12 11 13 14 13 14 14 14 14 14 13 13 13 13 13 13 13 13 13 13 13
12 12 11 12 12 11 12 11 12 11 11 11 10 11 12 12 14 15 15 15 14 14 14 13 13 13 13 13 13 13 13 13 13
12 11 11 11 11 11 11 11 11 11 10 11 10 11 11 13 13 14 15 16 16 15 14 13 13 13 13 13 13 13 13 13 13
11 12 11 11 11 11 11 11 11 11 10 10 10 12 11 11 12 13 14 15 15 15 14 14 13 14 14 13 13 12 12 12 12

GFSFLT1_850_temp_108.txt.gz
Temp
16 16 16 16 15 15 15 15 16 17 17 17 16 16 16 16 15 15 16 13 16 16 15 15 15 15 15 15 15 15 15 15 15
16 15 16 15 15 15 15 15 16 16 16 16 16 16 16 16 16 15 15 15 16 15 15 15 15 15 15 15 15 15 15 15 15
16 15 16 15 15 15 15 15 16 16 16 16 16 16 16 16 16 15 14 15 15 15 15 15 15 15 14 14 14 14 14 14 14
15 15 15 15 15 15 15 15 16 16 16 15 15 16 16 15 16 15 14 15 15 15 14 14 14 14 14 14 14 14 14 14 14
15 15 15 15 15 15 15 15 16 16 16 15 15 15 15 14 16 16 14 15 15 15 14 14 14 14 14 14 14 14 14 14 14
14 15 15 15 15 14 15 15 16 16 16 15 15 15 14 13 14 14 16 15 15 14 14 14 14 14 14 13 13 13 13 13 13
14 14 15 15 14 14 14 15 15 15 15 15 15 15 13 13 13 13 15 15 15 15 14 14 14 13 13 13 13 13 13 13 13
13 13 14 14 14 14 14 14 14 15 13 13 13 14 13 13 14 14 14 14 14 14 14 14 14 13 13 13 13 13 13 13 13
13 13 14 14 14 14 13 13 12 13 14 13 13 13 13 13 13 14 15 14 14 14 14 14 13 13 13 13 13 13 12 12 12
13 14 14 14 14 14 13 13 13 12 14 15 13 13 13 13 13 13 15 14 14 14 14 14 13 13 13 13 13 13 13 13 13
14 14 14 14 14 14 14 14 14 13 13 13 14 13 14 14 13 13 13 14 14 14 13 13 13 13 13 13 13 13 13 13 13
14 14 14 15 14 14 14 13 13 12 12 12 12 12 12 14 14 14 14 13 14 14 14 13 13 13 13 13 13 13 13 13 12
14 14 14 14 13 14 13 13 13 12 12 12 12 13 12 13 12 12 14 14 13 13 13 13 13 13 13 13 13 13 13 13 13
13 13 13 12 12 13 13 13 13 13 13 12 13 13 13 13 12 12 13 14 14 14 13 14 13 13 13 13 13 13 13 13 13
12 13 13 13 13 13 13 12 13 12 13 12 12 12 12 12 12 12 13 12 13 14 13 13 13 13 13 13 13 13 13 13 13
13 12 12 13 13 12 12 12 12 12 12 12 11 12 13 13 12 13 13 13 13 12 13 13 13 13 13 13 13 13 13 13 13
13 13 13 13 12 12 12 11 11 11 11 11 11 11 11 12 14 13 13 14 15 14 13 14 14 13 13 13 13 13 13 13 13
12 13 12 13 12 12 11 11 11 11 11 11 10 10 11 12 13 13 14 15 15 16 14 14 14 14 13 13 13 13 13 13 13
12 11 11 12 11 11 11 11 11 11 11 10 11 10 11 12 12 13 13 15 14 15 14 15 14 14 14 13 13 13 13 13 13
11 11 11 11 11 11 11 11 11 11 11 11 11 11 11 11 10 11 12 14 14 14 14 14 14 14 14 14 14 14 14 14 13

GFSFLT1_850_temp_111.txt.gz
Temp
16 16 17 16 15 15 16 15 16 17 16 16 16 16 16 16 14 14 15 14 16 16 15 15 15 15 15 15 15 15 15 15 14
16 16 16 16 15 15 15 15 16 17 16 16 16 16 16 14 14 14 14 16 16 16 15 15 15 15 15 15 15 15 14 14 14
16 16 15 15 15 15 15 15 16 16 16 16 16 16 16 14 13 13 13 16 16 15 15 15 15 15 15 14 14 14 14 14 14
15 15 15 15 15 15 15 15 16 16 16 16 16 16 16 14 14 13 13 15 16 15 15 15 15 14 14 14 14 14 14 14 14
15 15 15 15 15 15 15 15 15 16 16 16 16 16 16 15 13 13 13 15 15 15 15 15 14 14 14 14 14 14 14 14 13
15 15 15 15 15 15 15 14 15 15 16 15 16 16 15 14 13 13 14 15 15 15 14 14 14 14 14 14 14 14 14 13 13
15 15 15 15 15 15 14 14 14 15 15 15 15 16 15 14 14 14 14 15 15 14 14 14 14 14 13 13 13 13 13 13 13
14 14 14 15 14 14 14 14 14 14 14 13 15 15 15 14 14 13 14 15 15 15 14 14 14 13 13 13 13 13 13 13 13
14 14 15 14 15 14 14 14 14 13 14 14 14 14 14 14 14 14 14 14 14 14 15 14 14 13 13 13 13 13 13 13 13
13 14 14 14 14 14 14 14 14 13 13 13 14 14 14 14 14 13 13 14 14 14 14 14 14 14 14 13 13 13 13 13 13
14 14 14 14 14 14 13 14 14 13 13 13 13 13 14 14 14 13 13 14 14 14 14 13 13 13 13 13 13 13 13 13 13
13 14 14 14 14 14 13 13 13 14 13 13 13 13 13 13 13 13 13 13 14 14 14 14 14 13 13 13 13 13 13 13 13
14 13 13 13 13 14 14 14 13 13 13 13 12 13 13 13 13 13 13 13 13 14 14 14 14 13 13 13 13 13 13 13 13
14 13 13 13 13 13 13 13 13 13 13 13 12 12 13 13 13 14 13 13 13 13 13 14 14 14 13 13 13 13 13 13 13
14 13 13 12 12 12 13 13 13 12 12 12 12 12 12 12 13 13 13 13 13 13 14 13 14 14 14 13 13 13 13 13 13
13 13 13 13 12 13 12 11 12 12 12 12 11 12 12 12 12 14 13 13 13 13 13 14 15 14 14 14 13 13 13 13 13
13 13 13 13 12 13 13 12 12 11 12 11 11 11 11 12 12 13 13 13 13 13 13 13 15 16 15 15 14 14 13 13 13
12 13 13 12 11 11 12 12 12 11 12 11 11 11 12 12 13 13 13 13 13 13 14 14 14 16 15 15 14 14 14 13 13
11 11 11 11 11 11 11 11 12 11 11 11 11 11 12 12 13 13 13 13 13 14 14 14 15 16 15 15 15 14 14 13 13
10 11 10 11 11 11 11 11 11 12 11 11 11 11 11 11 11 11 12 12 13 13 13 14 15 15 14 15 15 14 14 14 13

GFSFLT1_850_temp_114.txt.gz
Temp
16 16 16 17 16 16 15 15 16 16 16 16 16 16 16 15 14 14 14 15 16 16 16 15 15 15 15 15 15 15 15 15 15
16 16 16 16 16 15 15 16 16 17 16 16 16 16 16 15 14 14 14 14 15 16 16 15 15 15 15 15 15 14 14 14 14
15 15 15 16 16 15 15 15 15 16 17 16 16 16 16 15 14 13 14 14 15 15 15 15 15 15 15 14 14 14 14 14 14
16 15 15 15 15 15 15 15 15 16 16 16 16 16 16 15 14 14 14 15 15 15 15 15 15 15 14 14 14 14 14 14 14
16 16 16 15 15 15 15 15 15 15 16 16 16 16 16 15 14 14 14 14 15 15 15 14 14 14 14 14 14 14 14 14 14
16 16 16 16 16 15 15 15 14 15 16 16 16 15 15 15 14 14 14 14 15 15 15 15 14 14 14 14 13 13 13 13 13
16 15 15 15 15 15 15 14 14 14 15 16 16 16 15 15 14 14 13 14 14 15 15 15 15 14 14 14 13 13 13 13 13
15 15 15 15 15 15 15 14 14 14 14 15 15 16 15 15 14 14 13 14 15 15 15 14 14 14 14 14 14 13 13 13 13
15 15 15 15 15 15 15 14 14 14 15 14 15 15 15 14 14 14 14 14 14 15 15 14 14 14 13 13 13 13 13 13 13
14 14 14 14 14 15 15 14 14 14 14 14 14 14 14 14 14 14 14 14 14 14 14 14 14 14 14 13 13 13 13 13 13
14 14 14 14 14 15 15 15 14 14 14 13 14 14 14 14 14 14 13 14 14 14 15 14 14 14 14 14 13 13 13 13 13
14 14 14 14 14 14 14 14 14 13 13 13 13 13 14 14 14 14 13 13 14 14 14 15 14 14 14 13 13 13 13 13 13
14 14 14 14 13 14 14 13 13 13 13 13 13 13 13 13 14 14 14 13 14 15 15 15 15 14 14 14 14 13 13 13 13
14 14 14 14 13 13 13 13 13 13 13 13 13 13 13 13 13 13 13 13 13 13 13 14 15 15 14 14 14 13 13 14 13
14 13 14 14 14 13 13 13 13 13 13 13 13 12 12 12 13 13 13 13 13 13 13 13 14 15 15 14 14 14 14 14 13
13 13 14 14 13 13 13 14 12 12 12 12 12 12 12 12 12 12 13 13 13 13 13 13 14 15 15 15 15 15 14 14 14
13 14 14 13 13 13 13 13 13 13 12 11 12 11 12 12 12 12 12 12 12 13 13 13 13 15 15 15 15 15 15 15 14
14 13 14 13 13 13 13 13 12 12 12 12 11 11 11 12 13 13 13 13 13 13 13 13 13 13 13 15 15 15 15 15 14
12 11 12 12 12 12 12 12 12 12 11 11 11 11 11 11 12 13 13 13 13 13 13 13 13 13 13 14 15 14 14 15 15
11 11 11 11 10 11 11 11 11 11 11 11 12 11 11 11 11 10 12 12 12 12 12 12 13 13 14 14 15 15 15 15 15

GFSFLT1_850_temp_117.txt.gz
Temp
16 16 16 16 16 16 16 16 16 16 16 16 16 16 15 15 14 14 14 15 15 15 15 15 15 15 15 15 15 15 15 15 14
16 16 16 16 16 16 15 15 15 16 17 16 16 16 15 15 15 15 15 15 15 15 15 15 15 15 15 15 15 15 15 15 15
16 16 16 16 16 16 15 15 15 16 17 17 16 16 15 15 14 14 15 15 15 15 15 15 15 14 14 14 14 14 14 14 14
16 16 16 16 16 16 15 15 15 15 16 16 16 16 16 15 14 14 14 14 15 15 15 15 15 15 14 14 14 14 14 14 14
16 16 16 16 16 16 16 15 15 15 15 16 16 16 16 15 14 14 14 14 14 15 15 15 15 15 14 14 14 14 14 14 14
16 16 16 16 16 16 15 15 15 15 15 16 16 16 16 15 15 14 14 14 14 14 15 15 14 14 14 14 14 14 14 14 14
16 16 15 15 15 15 15 15 15 14 15 15 16 16 16 15 15 14 14 14 14 15 15 15 14 14 14 14 14 13 13 13 13
15 16 15 14 14 15 15 15 15 15 15 15 15 16 15 15 15 15 14 14 14 15 15 15 14 14 14 14 14 13 13 13 13
15 15 14 14 15 15 15 15 15 15 15 14 15 15 15 15 14 14 13 14 14 14 15 15 15 14 14 14 14 13 13 13 13
14 14 14 14 15 15 14 15 15 15 15 14 14 14 14 14 14 14 13 14 14 14 14 15 15 15 14 14 14 13 13 13 13
15 14 14 14 14 15 14 15 14 15 14 14 14 14 14 14 14 14 13 13 13 14 14 14 15 15 14 14 14 14 13 13 13
14 14 14 15 14 14 14 14 14 14 14 13 14 14 13 13 14 13 14 14 14 14 14 14 14 15 15 14 14 14 14 13 13
13 14 14 14 14 14 13 14 14 13 13 13 13 14 13 14 14 14 13 14 14 14 13 14 14 14 14 14 14 13 13 13 13
14 13 14 14 14 14 14 14 13 13 13 13 13 13 12 13 12 13 13 13 13 13 13 14 14 14 14 14 14 14 13 14 13
13 14 13 13 14 14 14 13 13 13 13 12 12 12 12 12 12 12 13 13 13 13 13 13 14 14 14 14 14 14 14 14 14
12 12 13 13 13 13 13 13 13 13 13 12 12 12 12 13 13 12 12 13 13 13 13 13 13 13 14 14 14 14 15 14 14
11 12 13 13 13 13 13 13 13 13 13 13 12 12 12 12 13 13 13 13 13 13 13 13 13 13 13 13 14 14 14 14 14
10 11 12 12 12 12 12 13 13 13 13 12 12 11 11 12 12 13 13 14 13 13 13 12 12 13 13 13 13 14 14 14 14
10 9 10 11 11 11 12 12 12 11 12 12 12 12 11 12 12 12 12 13 13 13 13 13 13 12 12 13 12 13 14 14 14
9 9 9 10 10 10 11 12 11 10 11 11 11 11 11 11 11 11 11 12 12 12 12 12 13 13 13 13 12 12 13 14 14

GFSFLT1_850_temp_120.txt.gz
Temp
16 16 16 16 17 16 15 15 15 16 16 16 16 15 14 14 15 15 15 15 16 16 16 15 15 15 15 15 15 15 15 15 15
16 16 16 16 16 16 15 15 15 16 16 16 16 15 15 14 15 14 14 15 15 16 16 15 15 15 15 15 15 15 15 15 15
16 16 16 16 16 16 16 15 15 15 16 16 16 16 15 15 15 15 15 14 15 15 15 15 15 15 15 15 15 15 14 14 14
15 16 16 16 16 16 16 15 15 15 15 16 16 16 15 15 15 15 15 15 15 15 15 15 15 15 15 14 14 14 14 14 14
16 16 16 15 16 15 15 15 15 15 15 16 16 16 15 15 15 15 15 14 15 15 15 15 15 14 14 14 14 14 14 14 14
16 16 16 16 15 15 15 15 15 15 15 15 16 16 16 15 15 15 14 14 14 15 15 15 15 15 14 14 14 14 14 14 14
16 16 16 16 15 15 15 15 15 15 15 15 15 16 16 15 15 15 14 14 14 14 14 15 15 15 14 14 14 14 14 14 14
15 15 15 16 15 15 15 15 14 15 15 15 15 15 16 15 15 15 15 14 14 14 15 15 15 15 15 15 14 14 14 13 13
14 15 15 15 15 15 14 14 14 15 15 15 15 15 15 15 15 15 14 14 14 14 14 15 15 15 14 14 14 14 14 13 13
13 14 15 15 15 14 14 15 15 15 14 14 14 14 14 15 15 15 14 14 14 13 14 14 15 15 14 14 14 14 14 14 13
13 13 14 15 14 14 15 14 14 14 14 14 14 14 14 14 15 15 14 14 14 13 14 14 14 15 15 14 14 14 14 14 14
13 13 14 14 14 14 14 14 14 14 14 14 14 14 14 13 14 14 14 14 14 13 13 14 14 14 14 14 14 14 14 14 13
12 12 13 13 13 13 13 14 14 14 14 14 14 14 13 13 13 13 13 13 13 13 13 13 13 14 14 14 13 13 13 13 13
12 12 12 12 12 13 13 13 13 14 14 14 13 13 13 13 13 12 13 13 13 13 13 13 13 13 14 14 14 13 13 13 13
10 10 11 12 12 12 13 13 13 13 14 13 13 13 12 13 12 12 12 12 12 12 13 13 13 13 13 13 14 14 14 13 13
10 10 10 11 11 12 12 13 13 13 13 12 13 13 13 12 12 12 12 12 12 12 13 13 13 13 13 13 13 13 14 14 14
10 10 10 11 11 11 12 12 12 13 12 13 13 12 13 13 13 12 12 12 12 12 12 13 13 13 13 13 13 13 13 13 14
9 10 10 11 10 10 11 11 12 12 12 12 12 11 12 12 13 13 13 13 13 12 12 13 13 12 12 12 13 13 13 13 13
7 8 9 10 10 10 10 10 10 11 11 11 11 11 11 11 12 12 13 13 13 13 13 12 12 13 12 12 12 12 12 13 13
6 7 9 9 10 10 10 10 10 10 11 11 11 11 10 10 10 10 11 11 12 12 12 12 12 12 12 12 12 13 13 12 12